Wetterdaten: Samstag, 06.10.2018
Datum Zeit Temp. Aussen Temp. o. S. +5cm Feuchte Auss Luftdruck Regen Sonnenschein Regendauer Solar Windben Empfang
06.10.2018 00:00 13,3 C 12,2 C 11,7 C 86 % 1011,5 hPa 0,0 l/m 0 min 0 min 0 W/m 6,4 km/h (2 Bft) 97,83 %
06.10.2018 00:02 13,3 C 12,2 C 11,7 C 86 % 1011,5 hPa 0,0 l/m 0 min 0 min 0 W/m 9,7 km/h (2 Bft) 14,29 %
06.10.2018 00:04 13,3 C 12,2 C 11,7 C 86 % 1011,5 hPa 0,0 l/m 0 min 0 min 0 W/m 6,4 km/h (2 Bft) 78,57 %
06.10.2018 00:07 13,2 C 12,2 C 11,7 C 86 % 1011,5 hPa 0,0 l/m 0 min 0 min 0 W/m 9,7 km/h (2 Bft) 78,57 %
06.10.2018 00:08 13,2 C 12,2 C 11,7 C 86 % 1011,5 hPa 0,0 l/m 0 min 0 min 0 W/m 9,7 km/h (2 Bft) 96,81 %
06.10.2018 00:10 13,2 C 12,2 C 11,7 C 86 % 1011,5 hPa 0,0 l/m 0 min 0 min 0 W/m 9,7 km/h (2 Bft) 97,87 %
06.10.2018 00:12 13,2 C 12,2 C 11,7 C 86 % 1011,5 hPa 0,0 l/m 0 min 0 min 0 W/m 9,7 km/h (2 Bft) 97,83 %
06.10.2018 00:14 13,2 C 12,2 C 11,7 C 86 % 1011,5 hPa 0,0 l/m 0 min 0 min 0 W/m 6,4 km/h (2 Bft) 97,87 %
06.10.2018 00:16 13,2 C 12,2 C 11,7 C 86 % 1011,4 hPa 0,0 l/m 0 min 0 min 0 W/m 9,7 km/h (2 Bft) 97,87 %
06.10.2018 00:18 13,1 C 12,2 C 11,7 C 86 % 1011,5 hPa 0,0 l/m 0 min 0 min 0 W/m 6,4 km/h (2 Bft) 97,87 %
06.10.2018 00:20 13,1 C 12,2 C 11,7 C 86 % 1011,4 hPa 0,0 l/m 0 min 0 min 0 W/m 6,4 km/h (2 Bft) 97,87 %
06.10.2018 00:22 13,1 C 12,2 C 11,7 C 87 % 1011,4 hPa 0,0 l/m 0 min 0 min 0 W/m 6,4 km/h (2 Bft) 93,75 %
06.10.2018 00:24 13,1 C 12,2 C 11,7 C 87 % 1011,4 hPa 0,0 l/m 0 min 0 min 0 W/m 3,2 km/h (1 Bft) 97,83 %
06.10.2018 00:26 13,1 C 12,2 C 11,7 C 87 % 1011,4 hPa 0,0 l/m 0 min 0 min 0 W/m 6,4 km/h (2 Bft) 97,87 %
06.10.2018 00:28 13,0 C 12,2 C 11,7 C 87 % 1011,4 hPa 0,0 l/m 0 min 0 min 0 W/m 9,7 km/h (2 Bft) 97,87 %
06.10.2018 00:30 13,0 C 11,7 C 11,7 C 87 % 1011,4 hPa 0,0 l/m 0 min 0 min 0 W/m 6,4 km/h (2 Bft) 97,87 %
06.10.2018 00:32 13,0 C 12,2 C 11,7 C 87 % 1011,3 hPa 0,0 l/m 0 min 0 min 0 W/m 3,2 km/h (1 Bft) 97,96 %
06.10.2018 00:34 12,9 C 12,2 C 11,7 C 87 % 1011,4 hPa 0,0 l/m 0 min 0 min 0 W/m 9,7 km/h (2 Bft) 97,83 %
06.10.2018 00:36 12,9 C 11,7 C 11,7 C 87 % 1011,3 hPa 0,0 l/m 0 min 0 min 0 W/m 9,7 km/h (2 Bft) 97,87 %
06.10.2018 00:38 12,9 C 11,7 C 11,7 C 87 % 1011,4 hPa 0,0 l/m 0 min 0 min 0 W/m 9,7 km/h (2 Bft) 97,87 %
06.10.2018 00:40 12,9 C 11,7 C 11,7 C 87 % 1011,4 hPa 0,0 l/m 0 min 0 min 0 W/m 6,4 km/h (2 Bft) 93,62 %
06.10.2018 00:42 12,9 C 11,7 C 11,7 C 87 % 1011,4 hPa 0,0 l/m 0 min 0 min 0 W/m 9,7 km/h (2 Bft) 100,00 %
06.10.2018 00:44 12,8 C 11,7 C 11,7 C 87 % 1011,3 hPa 0,0 l/m 0 min 0 min 0 W/m 6,4 km/h (2 Bft) 100,00 %
06.10.2018 00:46 12,8 C 11,7 C 11,1 C 87 % 1011,3 hPa 0,0 l/m 0 min 0 min 0 W/m 6,4 km/h (2 Bft) 97,83 %
06.10.2018 00:48 12,8 C 11,7 C 11,1 C 87 % 1011,3 hPa 0,0 l/m 0 min 0 min 0 W/m 6,4 km/h (2 Bft) 100,00 %
06.10.2018 00:50 12,8 C 11,7 C 11,1 C 87 % 1011,3 hPa 0,0 l/m 0 min 0 min 0 W/m 3,2 km/h (1 Bft) 100,00 %
06.10.2018 00:52 12,7 C 11,7 C 11,1 C 87 % 1011,3 hPa 0,0 l/m 0 min 0 min 0 W/m 6,4 km/h (2 Bft) 100,00 %
06.10.2018 00:54 12,7 C 11,7 C 11,1 C 87 % 1011,3 hPa 0,0 l/m 0 min 0 min 0 W/m 6,4 km/h (2 Bft) 100,00 %
06.10.2018 00:56 12,7 C 11,7 C 11,1 C 87 % 1011,2 hPa 0,0 l/m 0 min 0 min 0 W/m 6,4 km/h (2 Bft) 97,87 %
06.10.2018 00:58 12,7 C 11,7 C 11,1 C 88 % 1011,3 hPa 0,0 l/m 0 min 0 min 0 W/m 9,7 km/h (2 Bft) 95,65 %
06.10.2018 01:00 12,7 C 11,7 C 11,1 C 88 % 1011,3 hPa 0,0 l/m 0 min 0 min 0 W/m 9,7 km/h (2 Bft) 100,00 %
06.10.2018 01:02 12,6 C 11,7 C 11,1 C 88 % 1011,2 hPa 0,0 l/m 0 min 0 min 0 W/m 9,7 km/h (2 Bft) 100,00 %
06.10.2018 01:04 12,6 C 11,7 C 11,1 C 88 % 1011,2 hPa 0,0 l/m 0 min 0 min 0 W/m 6,4 km/h (2 Bft) 97,87 %
06.10.2018 01:06 12,6 C 11,7 C 11,1 C 88 % 1011,2 hPa 0,0 l/m 0 min 0 min 0 W/m 9,7 km/h (2 Bft) 95,74 %
06.10.2018 01:08 12,6 C 11,7 C 11,1 C 88 % 1011,2 hPa 0,0 l/m 0 min 0 min 0 W/m 6,4 km/h (2 Bft) 97,87 %
06.10.2018 01:10 12,5 C 11,1 C 11,1 C 88 % 1011,2 hPa 0,0 l/m 0 min 0 min 0 W/m 3,2 km/h (1 Bft) 100,00 %
06.10.2018 01:12 12,5 C 11,1 C 11,1 C 88 % 1011,2 hPa 0,0 l/m 0 min 0 min 0 W/m 6,4 km/h (2 Bft) 100,00 %
06.10.2018 01:14 12,5 C 11,1 C 11,1 C 88 % 1011,2 hPa 0,0 l/m 0 min 0 min 0 W/m 6,4 km/h (2 Bft) 97,87 %
06.10.2018 01:16 12,4 C 11,1 C 11,1 C 88 % 1011,2 hPa 0,0 l/m 0 min 0 min 0 W/m 6,4 km/h (2 Bft) 97,87 %
06.10.2018 01:18 12,4 C 11,1 C 11,1 C 88 % 1011,2 hPa 0,0 l/m 0 min 0 min 0 W/m 9,7 km/h (2 Bft) 97,87 %
06.10.2018 01:20 12,4 C 11,1 C 11,1 C 88 % 1011,1 hPa 0,0 l/m 0 min 0 min 0 W/m 6,4 km/h (2 Bft) 97,87 %
06.10.2018 01:22 12,3 C 11,1 C 11,1 C 88 % 1011,1 hPa 0,0 l/m 0 min 0 min 0 W/m 6,4 km/h (2 Bft) 97,83 %
06.10.2018 01:24 12,3 C 11,1 C 11,1 C 88 % 1011,0 hPa 0,0 l/m 0 min 0 min 0 W/m 9,7 km/h (2 Bft) 97,87 %
06.10.2018 01:26 12,3 C 11,1 C 11,1 C 88 % 1011,1 hPa 0,0 l/m 0 min 0 min 0 W/m 9,7 km/h (2 Bft) 95,74 %
06.10.2018 01:28 12,3 C 11,1 C 11,1 C 88 % 1011,1 hPa 0,0 l/m 0 min 0 min 0 W/m 3,2 km/h (1 Bft) 97,87 %
06.10.2018 01:30 12,2 C 11,1 C 11,1 C 88 % 1011,1 hPa 0,0 l/m 0 min 0 min 0 W/m 6,4 km/h (2 Bft) 97,87 %
06.10.2018 01:32 12,2 C 11,1 C 10,6 C 88 % 1011,1 hPa 0,0 l/m 0 min 0 min 0 W/m 9,7 km/h (2 Bft) 97,83 %
06.10.2018 01:34 12,2 C 11,1 C 10,6 C 88 % 1011,0 hPa 0,0 l/m 0 min 0 min 0 W/m 6,4 km/h (2 Bft) 95,74 %
06.10.2018 01:36 12,2 C 11,1 C 10,6 C 89 % 1011,0 hPa 0,0 l/m 0 min 0 min 0 W/m 6,4 km/h (2 Bft) 97,87 %
06.10.2018 01:38 12,1 C 10,6 C 10,6 C 89 % 1011,0 hPa 0,0 l/m 0 min 0 min 0 W/m 6,4 km/h (2 Bft) 97,87 %
06.10.2018 01:40 12,1 C 11,1 C 10,6 C 89 % 1011,0 hPa 0,0 l/m 0 min 0 min 0 W/m 9,7 km/h (2 Bft) 97,87 %
06.10.2018 01:42 12,1 C 10,6 C 10,6 C 89 % 1011,0 hPa 0,0 l/m 0 min 0 min 0 W/m 6,4 km/h (2 Bft) 93,62 %
06.10.2018 01:44 12,0 C 11,1 C 10,6 C 89 % 1010,8 hPa 0,0 l/m 0 min 0 min 0 W/m 9,7 km/h (2 Bft) 97,83 %
06.10.2018 01:46 12,0 C 11,1 C 10,6 C 89 % 1010,9 hPa 0,0 l/m 0 min 0 min 0 W/m 12,9 km/h (3 Bft) 97,87 %
06.10.2018 01:48 12,0 C 11,1 C 10,6 C 89 % 1011,0 hPa 0,0 l/m 0 min 0 min 0 W/m 9,7 km/h (2 Bft) 97,87 %
06.10.2018 01:50 11,9 C 11,1 C 10,6 C 89 % 1011,0 hPa 0,0 l/m 0 min 0 min 0 W/m 9,7 km/h (2 Bft) 97,87 %
06.10.2018 01:52 11,9 C 11,1 C 10,6 C 89 % 1011,0 hPa 0,0 l/m 0 min 0 min 0 W/m 9,7 km/h (2 Bft) 95,74 %
06.10.2018 01:54 11,9 C 10,6 C 10,6 C 89 % 1011,0 hPa 0,0 l/m 0 min 0 min 0 W/m 3,2 km/h (1 Bft) 95,74 %
06.10.2018 01:56 11,9 C 10,6 C 10,6 C 89 % 1010,9 hPa 0,0 l/m 0 min 0 min 0 W/m 6,4 km/h (2 Bft) 95,65 %
06.10.2018 01:58 11,8 C 10,6 C 10,6 C 89 % 1010,9 hPa 0,0 l/m 0 min 0 min 0 W/m 3,2 km/h (1 Bft) 95,74 %
06.10.2018 02:00 11,8 C 10,6 C 10,6 C 89 % 1010,9 hPa 0,0 l/m 0 min 0 min 0 W/m 6,4 km/h (2 Bft) 97,87 %
06.10.2018 02:02 11,8 C 10,6 C 10,6 C 90 % 1010,9 hPa 0,0 l/m 0 min 0 min 0 W/m 6,4 km/h (2 Bft) 97,56 %
06.10.2018 02:04 11,8 C 10,6 C 10,6 C 90 % 1010,9 hPa 0,0 l/m 0 min 0 min 0 W/m 9,7 km/h (2 Bft) 97,87 %
06.10.2018 02:06 11,8 C 10,6 C 10,6 C 90 % 1010,9 hPa 0,0 l/m 0 min 0 min 0 W/m 6,4 km/h (2 Bft) 97,87 %
06.10.2018 02:08 11,7 C 10,6 C 10,6 C 90 % 1010,8 hPa 0,0 l/m 0 min 0 min 0 W/m 6,4 km/h (2 Bft) 97,87 %
06.10.2018 02:10 11,7 C 10,6 C 10,6 C 90 % 1010,8 hPa 0,0 l/m 0 min 0 min 0 W/m 3,2 km/h (1 Bft) 97,83 %
06.10.2018 02:12 11,7 C 10,6 C 10,6 C 90 % 1010,8 hPa 0,0 l/m 0 min 0 min 0 W/m 3,2 km/h (1 Bft) 95,74 %
06.10.2018 02:14 11,7 C 10,6 C 10,6 C 90 % 1010,7 hPa 0,0 l/m 0 min 0 min 0 W/m 6,4 km/h (2 Bft) 97,87 %
06.10.2018 02:16 11,7 C 10,6 C 10,6 C 90 % 1010,8 hPa 0,0 l/m 0 min 0 min 0 W/m 0,0 km/h (0 Bft) 97,87 %
06.10.2018 02:18 11,6 C 10,6 C 10,6 C 90 % 1010,8 hPa 0,0 l/m 0 min 0 min 0 W/m 0,0 km/h (0 Bft) 97,87 %
06.10.2018 02:20 11,6 C 10,6 C 10,6 C 90 % 1010,8 hPa 0,0 l/m 0 min 0 min 0 W/m 6,4 km/h (2 Bft) 97,87 %
06.10.2018 02:22 11,6 C 10,6 C 10,6 C 90 % 1010,9 hPa 0,0 l/m 0 min 0 min 0 W/m 6,4 km/h (2 Bft) 98,28 %
06.10.2018 02:24 11,6 C 10,6 C 10,6 C 90 % 1010,9 hPa 0,0 l/m 0 min 0 min 0 W/m 6,4 km/h (2 Bft) 97,14 %
06.10.2018 02:26 11,5 C 10,6 C 10,6 C 90 % 1010,9 hPa 0,0 l/m 0 min 0 min 0 W/m 6,4 km/h (2 Bft) 97,87 %
06.10.2018 02:28 11,5 C 10,6 C 10,6 C 90 % 1010,9 hPa 0,0 l/m 0 min 0 min 0 W/m 6,4 km/h (2 Bft) 95,74 %
06.10.2018 02:30 11,5 C 10,6 C 10,6 C 90 % 1010,9 hPa 0,0 l/m 0 min 0 min 0 W/m 6,4 km/h (2 Bft) 97,87 %
06.10.2018 02:32 11,4 C 10,6 C 10,6 C 90 % 1011,0 hPa 0,0 l/m 0 min 0 min 0 W/m 6,4 km/h (2 Bft) 95,74 %
06.10.2018 02:34 11,4 C 10,6 C 10,6 C 90 % 1010,8 hPa 0,0 l/m 0 min 0 min 0 W/m 6,4 km/h (2 Bft) 97,83 %
06.10.2018 02:36 11,4 C 10,6 C 10,6 C 90 % 1010,8 hPa 0,0 l/m 0 min 0 min 0 W/m 9,7 km/h (2 Bft) 97,92 %
06.10.2018 02:38 11,4 C 10,6 C 10,6 C 90 % 1010,8 hPa 0,0 l/m 0 min 0 min 0 W/m 6,4 km/h (2 Bft) 97,87 %
06.10.2018 02:40 11,4 C 10,6 C 10,6 C 91 % 1010,7 hPa 0,0 l/m 0 min 0 min 0 W/m 6,4 km/h (2 Bft) 97,87 %
06.10.2018 02:42 11,3 C 10,6 C 10,6 C 91 % 1010,7 hPa 0,0 l/m 0 min 0 min 0 W/m 6,4 km/h (2 Bft) 95,74 %
06.10.2018 02:44 11,3 C 10,0 C 10,0 C 91 % 1010,6 hPa 0,0 l/m 0 min 0 min 0 W/m 6,4 km/h (2 Bft) 100,00 %
06.10.2018 02:46 11,3 C 10,6 C 10,0 C 91 % 1010,7 hPa 0,0 l/m 0 min 0 min 0 W/m 6,4 km/h (2 Bft) 97,83 %
06.10.2018 02:48 11,3 C 10,0 C 10,0 C 91 % 1010,7 hPa 0,0 l/m 0 min 0 min 0 W/m 0,0 km/h (0 Bft) 100,00 %
06.10.2018 02:50 11,3 C 10,0 C 10,0 C 91 % 1010,7 hPa 0,0 l/m 0 min 0 min 0 W/m 6,4 km/h (2 Bft) 100,00 %
06.10.2018 02:52 11,3 C 10,0 C 10,0 C 91 % 1010,7 hPa 0,0 l/m 0 min 0 min 0 W/m 3,2 km/h (1 Bft) 100,00 %
06.10.2018 02:54 11,2 C 10,0 C 10,0 C 91 % 1010,7 hPa 0,0 l/m 0 min 0 min 0 W/m 3,2 km/h (1 Bft) 100,00 %
06.10.2018 02:56 11,2 C 10,0 C 10,0 C 91 % 1010,6 hPa 0,0 l/m 0 min 0 min 0 W/m 0,0 km/h (0 Bft) 97,83 %
06.10.2018 02:58 11,2 C 10,0 C 10,0 C 91 % 1010,6 hPa 0,0 l/m 0 min 0 min 0 W/m 6,4 km/h (2 Bft) 97,87 %
06.10.2018 03:00 11,2 C 10,0 C 10,0 C 91 % 1010,6 hPa 0,0 l/m 0 min 0 min 0 W/m 6,4 km/h (2 Bft) 100,00 %
06.10.2018 03:02 11,1 C 10,0 C 10,0 C 91 % 1010,6 hPa 0,0 l/m 0 min 0 min 0 W/m 9,7 km/h (2 Bft) 100,00 %
06.10.2018 03:04 11,1 C 10,0 C 10,0 C 91 % 1010,6 hPa 0,0 l/m 0 min 0 min 0 W/m 9,7 km/h (2 Bft) 100,00 %
06.10.2018 03:06 11,1 C 10,0 C 10,0 C 91 % 1010,6 hPa 0,0 l/m 0 min 0 min 0 W/m 3,2 km/h (1 Bft) 97,87 %
06.10.2018 03:08 11,1 C 10,0 C 10,0 C 91 % 1010,6 hPa 0,0 l/m 0 min 0 min 0 W/m 3,2 km/h (1 Bft) 100,00 %
06.10.2018 03:10 11,1 C 10,0 C 10,0 C 91 % 1010,5 hPa 0,0 l/m 0 min 0 min 0 W/m 0,0 km/h (0 Bft) 100,00 %
06.10.2018 03:12 11,0 C 10,0 C 10,0 C 91 % 1010,5 hPa 0,0 l/m 0 min 0 min 0 W/m 0,0 km/h (0 Bft) 100,00 %
06.10.2018 03:14 11,0 C 9,4 C 10,0 C 91 % 1010,4 hPa 0,0 l/m 0 min 0 min 0 W/m 3,2 km/h (1 Bft) 100,00 %
06.10.2018 03:16 11,0 C 9,4 C 10,0 C 91 % 1010,4 hPa 0,0 l/m 0 min 0 min 0 W/m 3,2 km/h (1 Bft) 100,00 %
06.10.2018 03:18 10,9 C 9,4 C 10,0 C 91 % 1010,4 hPa 0,0 l/m 0 min 0 min 0 W/m 6,4 km/h (2 Bft) 100,00 %
06.10.2018 03:20 10,9 C 9,4 C 10,0 C 91 % 1010,4 hPa 0,0 l/m 0 min 0 min 0 W/m 6,4 km/h (2 Bft) 100,00 %
06.10.2018 03:22 10,9 C 9,4 C 10,0 C 91 % 1010,4 hPa 0,0 l/m 0 min 0 min 0 W/m 6,4 km/h (2 Bft) 100,00 %
06.10.2018 03:24 10,8 C 9,4 C 10,0 C 91 % 1010,3 hPa 0,0 l/m 0 min 0 min 0 W/m 6,4 km/h (2 Bft) 97,87 %
06.10.2018 03:26 10,8 C 9,4 C 10,0 C 91 % 1010,2 hPa 0,0 l/m 0 min 0 min 0 W/m 6,4 km/h (2 Bft) 97,87 %
06.10.2018 03:28 10,8 C 9,4 C 10,0 C 91 % 1010,2 hPa 0,0 l/m 0 min 0 min 0 W/m 6,4 km/h (2 Bft) 100,00 %
06.10.2018 03:30 10,8 C 9,4 C 10,0 C 91 % 1010,1 hPa 0,0 l/m 0 min 0 min 0 W/m 9,7 km/h (2 Bft) 100,00 %
06.10.2018 03:32 10,8 C 10,0 C 10,0 C 91 % 1010,1 hPa 0,0 l/m 0 min 0 min 0 W/m 6,4 km/h (2 Bft) 97,87 %
06.10.2018 03:34 10,7 C 10,0 C 10,0 C 91 % 1010,1 hPa 0,0 l/m 0 min 0 min 0 W/m 9,7 km/h (2 Bft) 97,87 %
06.10.2018 03:36 10,7 C 9,4 C 10,0 C 92 % 1010,1 hPa 0,0 l/m 0 min 0 min 0 W/m 3,2 km/h (1 Bft) 97,87 %
06.10.2018 03:38 10,7 C 9,4 C 10,0 C 92 % 1010,1 hPa 0,0 l/m 0 min 0 min 0 W/m 3,2 km/h (1 Bft) 100,00 %
06.10.2018 03:40 10,7 C 10,0 C 10,0 C 92 % 1010,0 hPa 0,0 l/m 0 min 0 min 0 W/m 6,4 km/h (2 Bft) 97,87 %
06.10.2018 03:42 10,7 C 9,4 C 10,0 C 92 % 1010,0 hPa 0,0 l/m 0 min 0 min 0 W/m 3,2 km/h (1 Bft) 95,65 %
06.10.2018 03:44 10,6 C 9,4 C 10,0 C 92 % 1010,0 hPa 0,0 l/m 0 min 0 min 0 W/m 3,2 km/h (1 Bft) 93,62 %
06.10.2018 03:46 10,6 C 9,4 C 10,0 C 92 % 1010,0 hPa 0,0 l/m 0 min 0 min 0 W/m 3,2 km/h (1 Bft) 93,62 %
06.10.2018 03:48 10,6 C 9,4 C 9,4 C 92 % 1009,9 hPa 0,0 l/m 0 min 0 min 0 W/m 3,2 km/h (1 Bft) 95,74 %
06.10.2018 03:50 10,6 C 9,4 C 9,4 C 92 % 1009,9 hPa 0,0 l/m 0 min 0 min 0 W/m 0,0 km/h (0 Bft) 95,74 %
06.10.2018 03:52 10,6 C 9,4 C 9,4 C 92 % 1009,9 hPa 0,0 l/m 0 min 0 min 0 W/m 3,2 km/h (1 Bft) 93,62 %
06.10.2018 03:54 10,6 C 9,4 C 9,4 C 92 % 1009,8 hPa 0,0 l/m 0 min 0 min 0 W/m 3,2 km/h (1 Bft) 95,65 %
06.10.2018 03:56 10,5 C 9,4 C 9,4 C 92 % 1009,8 hPa 0,0 l/m 0 min 0 min 0 W/m 3,2 km/h (1 Bft) 95,74 %
06.10.2018 03:58 10,5 C 9,4 C 9,4 C 92 % 1009,8 hPa 0,0 l/m 0 min 0 min 0 W/m 3,2 km/h (1 Bft) 95,74 %
06.10.2018 04:00 10,5 C 9,4 C 9,4 C 92 % 1009,9 hPa 0,0 l/m 0 min 0 min 0 W/m 3,2 km/h (1 Bft) 95,74 %
06.10.2018 04:02 10,5 C 9,4 C 9,4 C 92 % 1009,9 hPa 0,0 l/m 0 min 0 min 0 W/m 3,2 km/h (1 Bft) 96,00 %
06.10.2018 04:04 10,4 C 9,4 C 9,4 C 92 % 1009,9 hPa 0,0 l/m 0 min 0 min 0 W/m 3,2 km/h (1 Bft) 100,00 %
06.10.2018 04:06 10,4 C 9,4 C 9,4 C 92 % 1009,9 hPa 0,0 l/m 0 min 0 min 0 W/m 6,4 km/h (2 Bft) 97,87 %
06.10.2018 04:11 10,4 C 9,4 C 9,4 C 92 % 1010,0 hPa 0,0 l/m 0 min 0 min 0 W/m 6,4 km/h (2 Bft) 97,96 %
06.10.2018 04:12 10,4 C 9,4 C 9,4 C 92 % 1010,0 hPa 0,0 l/m 0 min 0 min 0 W/m 0,0 km/h (0 Bft) 95,83 %
06.10.2018 04:14 10,4 C 9,4 C 9,4 C 92 % 1010,0 hPa 0,0 l/m 0 min 0 min 0 W/m 6,4 km/h (2 Bft) 100,00 %
06.10.2018 04:16 10,4 C 9,4 C 9,4 C 93 % 1009,9 hPa 0,0 l/m 0 min 0 min 0 W/m 6,4 km/h (2 Bft) 95,74 %
06.10.2018 04:18 10,3 C 9,4 C 9,4 C 93 % 1009,9 hPa 0,0 l/m 0 min 0 min 0 W/m 3,2 km/h (1 Bft) 97,83 %
06.10.2018 04:20 10,3 C 9,4 C 9,4 C 93 % 1010,0 hPa 0,0 l/m 0 min 0 min 0 W/m 6,4 km/h (2 Bft) 97,87 %
06.10.2018 04:22 10,3 C 9,4 C 9,4 C 93 % 1009,8 hPa 0,0 l/m 0 min 0 min 0 W/m 6,4 km/h (2 Bft) 97,92 %
06.10.2018 04:24 10,3 C 9,4 C 9,4 C 93 % 1009,8 hPa 0,0 l/m 0 min 0 min 0 W/m 3,2 km/h (1 Bft) 97,87 %
06.10.2018 04:26 10,3 C 9,4 C 9,4 C 93 % 1009,8 hPa 0,0 l/m 0 min 0 min 0 W/m 6,4 km/h (2 Bft) 97,87 %
06.10.2018 04:28 10,3 C 9,4 C 9,4 C 93 % 1009,8 hPa 0,0 l/m 0 min 0 min 0 W/m 6,4 km/h (2 Bft) 97,87 %
06.10.2018 04:30 10,3 C 9,4 C 9,4 C 93 % 1009,7 hPa 0,0 l/m 0 min 0 min 0 W/m 9,7 km/h (2 Bft) 97,83 %
06.10.2018 04:32 10,3 C 9,4 C 9,4 C 93 % 1009,7 hPa 0,0 l/m 0 min 0 min 0 W/m 6,4 km/h (2 Bft) 97,87 %
06.10.2018 04:34 10,3 C 9,4 C 9,4 C 93 % 1009,7 hPa 0,0 l/m 0 min 0 min 0 W/m 6,4 km/h (2 Bft) 97,87 %
06.10.2018 04:36 10,3 C 9,4 C 9,4 C 93 % 1009,7 hPa 0,0 l/m 0 min 0 min 0 W/m 6,4 km/h (2 Bft) 97,92 %
06.10.2018 04:38 10,3 C 9,4 C 9,4 C 93 % 1009,7 hPa 0,0 l/m 0 min 0 min 0 W/m 6,4 km/h (2 Bft) 95,74 %
06.10.2018 04:40 10,3 C 9,4 C 9,4 C 93 % 1009,6 hPa 0,0 l/m 0 min 0 min 0 W/m 6,4 km/h (2 Bft) 97,83 %
06.10.2018 04:42 10,3 C 9,4 C 10,0 C 93 % 1009,6 hPa 0,0 l/m 0 min 0 min 0 W/m 6,4 km/h (2 Bft) 97,87 %
06.10.2018 04:44 10,3 C 9,4 C 10,0 C 93 % 1009,6 hPa 0,0 l/m 0 min 0 min 0 W/m 6,4 km/h (2 Bft) 97,87 %
06.10.2018 04:45 10,3 C 9,4 C 10,0 C 93 % 1009,6 hPa 0,0 l/m 0 min 0 min 0 W/m 6,4 km/h (2 Bft) 100,00 %
06.10.2018 04:50 10,2 C 9,4 C 9,4 C 94 % 1009,6 hPa 0,0 l/m 0 min 0 min 0 W/m 6,4 km/h (2 Bft) 97,37 %
06.10.2018 04:52 10,2 C 9,4 C 9,4 C 94 % 1009,6 hPa 0,0 l/m 0 min 0 min 0 W/m 6,4 km/h (2 Bft) 100,00 %
06.10.2018 04:54 10,2 C 9,4 C 9,4 C 94 % 1009,5 hPa 0,0 l/m 0 min 0 min 0 W/m 6,4 km/h (2 Bft) 97,14 %
06.10.2018 04:55 10,2 C 9,4 C 9,4 C 94 % 1009,5 hPa 0,0 l/m 0 min 0 min 0 W/m 6,4 km/h (2 Bft) 95,61 %
06.10.2018 05:00 10,2 C 9,4 C 9,4 C 94 % 1009,4 hPa 0,0 l/m 0 min 0 min 0 W/m 6,4 km/h (2 Bft) 77,19 %
06.10.2018 05:04 10,2 C 9,4 C 9,4 C 94 % 1009,4 hPa 0,0 l/m 0 min 0 min 0 W/m 6,4 km/h (2 Bft) 97,22 %
06.10.2018 05:05 10,2 C 9,4 C 9,4 C 94 % 1009,4 hPa 0,0 l/m 0 min 0 min 0 W/m 6,4 km/h (2 Bft) 100,00 %
06.10.2018 05:12 10,2 C 9,4 C 9,4 C 94 % 1009,4 hPa 0,0 l/m 0 min 0 min 0 W/m 3,2 km/h (1 Bft) 97,37 %
06.10.2018 05:14 10,2 C 9,4 C 9,4 C 94 % 1009,4 hPa 0,0 l/m 0 min 0 min 0 W/m 9,7 km/h (2 Bft) 97,87 %
06.10.2018 05:16 10,2 C 9,4 C 9,4 C 94 % 1009,4 hPa 0,0 l/m 0 min 0 min 0 W/m 6,4 km/h (2 Bft) 100,00 %
06.10.2018 05:18 10,2 C 9,4 C 9,4 C 94 % 1009,3 hPa 0,0 l/m 0 min 0 min 0 W/m 9,7 km/h (2 Bft) 95,74 %
06.10.2018 05:20 10,2 C 9,4 C 9,4 C 94 % 1009,4 hPa 0,0 l/m 0 min 0 min 0 W/m 12,9 km/h (3 Bft) 95,74 %
06.10.2018 05:22 10,2 C 9,4 C 9,4 C 94 % 1009,3 hPa 0,0 l/m 0 min 0 min 0 W/m 6,4 km/h (2 Bft) 97,83 %
06.10.2018 05:24 10,2 C 9,4 C 9,4 C 94 % 1009,3 hPa 0,0 l/m 0 min 0 min 0 W/m 6,4 km/h (2 Bft) 98,00 %
06.10.2018 05:26 10,2 C 9,4 C 9,4 C 94 % 1009,3 hPa 0,0 l/m 0 min 0 min 0 W/m 6,4 km/h (2 Bft) 97,87 %
06.10.2018 05:28 10,2 C 9,4 C 9,4 C 94 % 1009,3 hPa 0,0 l/m 0 min 0 min 0 W/m 6,4 km/h (2 Bft) 97,87 %
06.10.2018 05:30 10,2 C 9,4 C 9,4 C 94 % 1009,3 hPa 0,0 l/m 0 min 0 min 0 W/m 3,2 km/h (1 Bft) 95,74 %
06.10.2018 05:32 10,2 C 9,4 C 9,4 C 94 % 1009,3 hPa 0,0 l/m 0 min 0 min 0 W/m 9,7 km/h (2 Bft) 97,83 %
06.10.2018 05:34 10,2 C 9,4 C 9,4 C 94 % 1009,2 hPa 0,0 l/m 0 min 0 min 0 W/m 9,7 km/h (2 Bft) 97,87 %
06.10.2018 05:36 10,2 C 9,4 C 9,4 C 94 % 1009,2 hPa 0,0 l/m 0 min 0 min 0 W/m 6,4 km/h (2 Bft) 95,74 %
06.10.2018 05:38 10,2 C 9,4 C 9,4 C 94 % 1009,2 hPa 0,0 l/m 0 min 0 min 0 W/m 3,2 km/h (1 Bft) 100,00 %
06.10.2018 05:40 10,2 C 9,4 C 9,4 C 94 % 1009,2 hPa 0,0 l/m 0 min 0 min 0 W/m 9,7 km/h (2 Bft) 100,00 %
06.10.2018 05:42 10,2 C 9,4 C 9,4 C 94 % 1009,2 hPa 0,0 l/m 0 min 0 min 0 W/m 3,2 km/h (1 Bft) 100,00 %
06.10.2018 05:44 10,2 C 9,4 C 9,4 C 94 % 1009,1 hPa 0,0 l/m 0 min 0 min 0 W/m 6,4 km/h (2 Bft) 97,83 %
06.10.2018 05:46 10,2 C 9,4 C 10,0 C 94 % 1009,1 hPa 0,0 l/m 0 min 0 min 0 W/m 9,7 km/h (2 Bft) 97,87 %
06.10.2018 05:48 10,2 C 9,4 C 10,0 C 94 % 1009,1 hPa 0,0 l/m 0 min 0 min 0 W/m 6,4 km/h (2 Bft) 97,87 %
06.10.2018 05:50 10,2 C 9,4 C 9,4 C 94 % 1009,0 hPa 0,0 l/m 0 min 0 min 0 W/m 9,7 km/h (2 Bft) 100,00 %
06.10.2018 05:52 10,2 C 9,4 C 9,4 C 94 % 1009,0 hPa 0,0 l/m 0 min 0 min 0 W/m 6,4 km/h (2 Bft) 95,74 %
06.10.2018 05:54 10,2 C 9,4 C 9,4 C 95 % 1009,0 hPa 0,0 l/m 0 min 0 min 0 W/m 3,2 km/h (1 Bft) 95,74 %
06.10.2018 05:56 10,2 C 9,4 C 9,4 C 95 % 1009,0 hPa 0,0 l/m 0 min 0 min 0 W/m 3,2 km/h (1 Bft) 100,00 %
06.10.2018 05:58 10,2 C 9,4 C 9,4 C 95 % 1008,9 hPa 0,0 l/m 0 min 0 min 0 W/m 0,0 km/h (0 Bft) 97,87 %
06.10.2018 06:00 10,2 C 9,4 C 9,4 C 95 % 1008,9 hPa 0,0 l/m 0 min 0 min 0 W/m 0,0 km/h (0 Bft) 97,87 %
06.10.2018 06:02 10,2 C 9,4 C 9,4 C 95 % 1008,8 hPa 0,0 l/m 0 min 0 min 0 W/m 0,0 km/h (0 Bft) 97,87 %
06.10.2018 06:04 10,1 C 9,4 C 9,4 C 95 % 1008,9 hPa 0,0 l/m 0 min 0 min 0 W/m 0,0 km/h (0 Bft) 97,87 %
06.10.2018 06:06 10,1 C 9,4 C 9,4 C 95 % 1008,8 hPa 0,0 l/m 0 min 0 min 0 W/m 0,0 km/h (0 Bft) 97,87 %
06.10.2018 06:08 10,1 C 9,4 C 9,4 C 95 % 1008,8 hPa 0,0 l/m 0 min 0 min 0 W/m 0,0 km/h (0 Bft) 97,83 %
06.10.2018 06:10 10,1 C 9,4 C 9,4 C 95 % 1008,8 hPa 0,0 l/m 0 min 0 min 0 W/m 0,0 km/h (0 Bft) 97,87 %
06.10.2018 06:12 10,1 C 9,4 C 9,4 C 95 % 1008,9 hPa 0,0 l/m 0 min 0 min 0 W/m 0,0 km/h (0 Bft) 97,87 %
06.10.2018 06:14 10,1 C 9,4 C 9,4 C 95 % 1008,8 hPa 0,0 l/m 0 min 0 min 0 W/m 0,0 km/h (0 Bft) 95,74 %
06.10.2018 06:16 10,1 C 9,4 C 9,4 C 95 % 1008,9 hPa 0,0 l/m 0 min 0 min 0 W/m 3,2 km/h (1 Bft) 97,87 %
06.10.2018 06:18 10,1 C 9,4 C 9,4 C 95 % 1008,8 hPa 0,0 l/m 0 min 0 min 0 W/m 6,4 km/h (2 Bft) 97,87 %
06.10.2018 06:20 10,1 C 9,4 C 9,4 C 95 % 1008,7 hPa 0,0 l/m 0 min 0 min 0 W/m 6,4 km/h (2 Bft) 97,83 %
06.10.2018 06:22 10,0 C 9,4 C 9,4 C 95 % 1008,6 hPa 0,0 l/m 0 min 0 min 0 W/m 9,7 km/h (2 Bft) 97,87 %
06.10.2018 06:24 10,1 C 9,4 C 9,4 C 95 % 1008,6 hPa 0,0 l/m 0 min 0 min 0 W/m 16,1 km/h (3 Bft) 95,74 %
06.10.2018 06:26 10,1 C 10,0 C 9,4 C 95 % 1008,6 hPa 0,0 l/m 0 min 0 min 0 W/m 16,1 km/h (3 Bft) 97,87 %
06.10.2018 06:28 10,1 C 10,0 C 9,4 C 95 % 1008,6 hPa 0,0 l/m 0 min 0 min 0 W/m 9,7 km/h (2 Bft) 95,74 %
06.10.2018 06:30 10,1 C 10,0 C 9,4 C 95 % 1008,6 hPa 0,0 l/m 0 min 0 min 0 W/m 6,4 km/h (2 Bft) 97,83 %
06.10.2018 06:32 10,1 C 10,0 C 9,4 C 95 % 1008,5 hPa 0,0 l/m 0 min 0 min 0 W/m 9,7 km/h (2 Bft) 97,87 %
06.10.2018 06:34 10,1 C 10,0 C 10,0 C 95 % 1008,5 hPa 0,0 l/m 0 min 0 min 0 W/m 6,4 km/h (2 Bft) 97,87 %
06.10.2018 06:36 10,1 C 10,0 C 10,0 C 95 % 1008,5 hPa 0,0 l/m 0 min 0 min 0 W/m 6,4 km/h (2 Bft) 97,87 %
06.10.2018 06:38 10,1 C 10,0 C 9,4 C 95 % 1008,4 hPa 0,0 l/m 0 min 0 min 0 W/m 6,4 km/h (2 Bft) 95,74 %
06.10.2018 06:40 10,1 C 9,4 C 9,4 C 95 % 1008,5 hPa 0,0 l/m 0 min 0 min 0 W/m 6,4 km/h (2 Bft) 97,87 %
06.10.2018 06:42 10,1 C 10,0 C 9,4 C 95 % 1008,3 hPa 0,0 l/m 0 min 0 min 0 W/m 12,9 km/h (3 Bft) 97,83 %
06.10.2018 06:44 10,1 C 10,0 C 9,4 C 95 % 1008,3 hPa 0,0 l/m 0 min 0 min 0 W/m 6,4 km/h (2 Bft) 97,87 %
06.10.2018 06:46 10,2 C 10,0 C 10,0 C 95 % 1008,3 hPa 0,0 l/m 0 min 0 min 0 W/m 6,4 km/h (2 Bft) 97,62 %
06.10.2018 06:48 10,2 C 10,0 C 10,0 C 95 % 1008,3 hPa 0,0 l/m 0 min 0 min 0 W/m 6,4 km/h (2 Bft) 97,92 %
06.10.2018 06:50 10,2 C 10,0 C 10,0 C 95 % 1008,3 hPa 0,0 l/m 0 min 0 min 0 W/m 12,9 km/h (3 Bft) 97,83 %
06.10.2018 06:52 10,2 C 10,0 C 10,0 C 95 % 1008,4 hPa 0,0 l/m 0 min 0 min 0 W/m 9,7 km/h (2 Bft) 100,00 %
06.10.2018 06:54 10,2 C 10,0 C 10,0 C 95 % 1008,3 hPa 0,0 l/m 0 min 0 min 0 W/m 6,4 km/h (2 Bft) 100,00 %
06.10.2018 06:56 10,2 C 10,0 C 10,0 C 95 % 1008,3 hPa 0,0 l/m 0 min 0 min 0 W/m 6,4 km/h (2 Bft) 100,00 %
06.10.2018 06:58 10,2 C 10,0 C 10,0 C 95 % 1008,3 hPa 0,0 l/m 0 min 0 min 0 W/m 9,7 km/h (2 Bft) 100,00 %
06.10.2018 07:00 10,2 C 10,0 C 10,0 C 95 % 1008,3 hPa 0,0 l/m 0 min 0 min 0 W/m 6,4 km/h (2 Bft) 100,00 %
06.10.2018 07:02 10,2 C 10,0 C 10,0 C 95 % 1008,3 hPa 0,0 l/m 0 min 0 min 0 W/m 9,7 km/h (2 Bft) 97,87 %
06.10.2018 07:04 10,2 C 10,0 C 10,0 C 95 % 1008,2 hPa 0,0 l/m 0 min 0 min 0 W/m 12,9 km/h (3 Bft) 100,00 %
06.10.2018 07:06 10,2 C 10,0 C 10,0 C 95 % 1008,2 hPa 0,0 l/m 0 min 0 min 0 W/m 9,7 km/h (2 Bft) 100,00 %
06.10.2018 07:08 10,2 C 10,0 C 10,0 C 95 % 1008,3 hPa 0,0 l/m 0 min 0 min 0 W/m 6,4 km/h (2 Bft) 100,00 %
06.10.2018 07:10 10,2 C 10,0 C 10,0 C 95 % 1008,3 hPa 0,0 l/m 0 min 0 min 0 W/m 12,9 km/h (3 Bft) 97,87 %
06.10.2018 07:12 10,2 C 10,0 C 10,0 C 95 % 1008,2 hPa 0,0 l/m 0 min 0 min 0 W/m 6,4 km/h (2 Bft) 100,00 %
06.10.2018 07:14 10,2 C 10,0 C 10,0 C 95 % 1008,2 hPa 0,0 l/m 0 min 0 min 0 W/m 9,7 km/h (2 Bft) 100,00 %
06.10.2018 07:16 10,2 C 10,0 C 10,0 C 95 % 1008,2 hPa 0,0 l/m 0 min 0 min 0 W/m 6,4 km/h (2 Bft) 100,00 %
06.10.2018 07:18 10,2 C 9,4 C 9,4 C 95 % 1008,2 hPa 0,0 l/m 0 min 0 min 0 W/m 6,4 km/h (2 Bft) 100,00 %
06.10.2018 07:20 10,2 C 9,4 C 9,4 C 95 % 1008,1 hPa 0,0 l/m 0 min 0 min 0 W/m 3,2 km/h (1 Bft) 100,00 %
06.10.2018 07:22 10,2 C 9,4 C 9,4 C 95 % 1008,1 hPa 0,0 l/m 0 min 0 min 0 W/m 6,4 km/h (2 Bft) 100,00 %
06.10.2018 07:24 10,2 C 9,4 C 9,4 C 95 % 1008,2 hPa 0,0 l/m 0 min 0 min 0 W/m 6,4 km/h (2 Bft) 100,00 %
06.10.2018 07:26 10,2 C 9,4 C 9,4 C 95 % 1008,2 hPa 0,0 l/m 0 min 0 min 0 W/m 9,7 km/h (2 Bft) 100,00 %
06.10.2018 07:28 10,2 C 9,4 C 9,4 C 95 % 1008,2 hPa 0,0 l/m 0 min 0 min 0 W/m 6,4 km/h (2 Bft) 100,00 %
06.10.2018 07:30 10,2 C 9,4 C 9,4 C 95 % 1008,2 hPa 0,0 l/m 0 min 0 min 0 W/m 9,7 km/h (2 Bft) 100,00 %
06.10.2018 07:32 10,2 C 9,4 C 9,4 C 95 % 1008,2 hPa 0,0 l/m 0 min 0 min 0 W/m 9,7 km/h (2 Bft) 100,00 %
06.10.2018 07:34 10,2 C 9,4 C 9,4 C 95 % 1008,1 hPa 0,0 l/m 0 min 0 min 0 W/m 6,4 km/h (2 Bft) 100,00 %
06.10.2018 07:36 10,2 C 9,4 C 9,4 C 95 % 1008,2 hPa 0,0 l/m 0 min 0 min 0 W/m 6,4 km/h (2 Bft) 100,00 %
06.10.2018 07:38 10,1 C 9,4 C 9,4 C 95 % 1008,1 hPa 0,0 l/m 0 min 0 min 0 W/m 6,4 km/h (2 Bft) 96,55 %
06.10.2018 07:40 10,1 C 9,4 C 9,4 C 95 % 1008,2 hPa 0,0 l/m 0 min 0 min 0 W/m 9,7 km/h (2 Bft) 97,87 %
06.10.2018 07:42 10,1 C 9,4 C 9,4 C 95 % 1008,2 hPa 0,0 l/m 0 min 0 min 0 W/m 9,7 km/h (2 Bft) 97,87 %
06.10.2018 07:44 10,1 C 9,4 C 9,4 C 95 % 1008,2 hPa 0,0 l/m 0 min 0 min 0 W/m 6,4 km/h (2 Bft) 95,74 %
06.10.2018 07:46 10,1 C 9,4 C 9,4 C 95 % 1008,2 hPa 0,0 l/m 0 min 0 min 3 W/m 3,2 km/h (1 Bft) 95,92 %
06.10.2018 07:48 10,1 C 9,4 C 9,4 C 95 % 1008,2 hPa 0,0 l/m 0 min 0 min 5 W/m 6,4 km/h (2 Bft) 95,65 %
06.10.2018 07:50 10,1 C 9,4 C 9,4 C 95 % 1008,2 hPa 0,0 l/m 0 min 0 min 5 W/m 9,7 km/h (2 Bft) 95,74 %
06.10.2018 07:52 10,1 C 9,4 C 9,4 C 95 % 1008,2 hPa 0,0 l/m 0 min 0 min 7 W/m 9,7 km/h (2 Bft) 95,74 %
06.10.2018 07:54 10,1 C 9,4 C 9,4 C 95 % 1008,2 hPa 0,0 l/m 0 min 0 min 7 W/m 6,4 km/h (2 Bft) 94,29 %
06.10.2018 07:56 10,1 C 9,4 C 9,4 C 95 % 1008,2 hPa 0,0 l/m 0 min 0 min 8 W/m 6,4 km/h (2 Bft) 95,74 %
06.10.2018 07:58 10,1 C 9,4 C 9,4 C 95 % 1008,2 hPa 0,0 l/m 0 min 0 min 9 W/m 9,7 km/h (2 Bft) 95,74 %
06.10.2018 08:00 10,1 C 9,4 C 9,4 C 95 % 1008,2 hPa 0,0 l/m 0 min 0 min 10 W/m 3,2 km/h (1 Bft) 93,62 %
06.10.2018 08:02 10,1 C 9,4 C 9,4 C 95 % 1008,2 hPa 0,0 l/m 0 min 0 min 11 W/m 3,2 km/h (1 Bft) 95,65 %
06.10.2018 08:04 10,1 C 9,4 C 9,4 C 95 % 1008,2 hPa 0,0 l/m 0 min 0 min 12 W/m 6,4 km/h (2 Bft) 93,62 %
06.10.2018 08:06 10,1 C 9,4 C 9,4 C 95 % 1008,2 hPa 0,0 l/m 0 min 0 min 13 W/m 3,2 km/h (1 Bft) 95,74 %
06.10.2018 08:08 10,1 C 9,4 C 9,4 C 95 % 1008,2 hPa 0,0 l/m 0 min 0 min 14 W/m 3,2 km/h (1 Bft) 95,74 %
06.10.2018 08:10 10,1 C 9,4 C 9,4 C 95 % 1008,2 hPa 0,0 l/m 0 min 0 min 15 W/m 6,4 km/h (2 Bft) 95,74 %
06.10.2018 08:12 10,1 C 9,4 C 9,4 C 95 % 1008,1 hPa 0,0 l/m 0 min 0 min 16 W/m 6,4 km/h (2 Bft) 95,74 %
06.10.2018 08:14 10,1 C 10,0 C 9,4 C 95 % 1008,2 hPa 0,0 l/m 0 min 0 min 16 W/m 9,7 km/h (2 Bft) 91,30 %
06.10.2018 08:16 10,1 C 10,0 C 10,0 C 95 % 1008,2 hPa 0,0 l/m 0 min 0 min 18 W/m 9,7 km/h (2 Bft) 93,62 %
06.10.2018 08:18 10,1 C 10,0 C 10,0 C 96 % 1008,2 hPa 0,0 l/m 0 min 0 min 18 W/m 12,9 km/h (3 Bft) 93,62 %
06.10.2018 08:20 10,1 C 10,0 C 10,0 C 95 % 1008,2 hPa 0,0 l/m 0 min 0 min 18 W/m 9,7 km/h (2 Bft) 95,74 %
06.10.2018 08:22 10,1 C 10,0 C 10,0 C 95 % 1008,1 hPa 0,0 l/m 0 min 0 min 19 W/m 9,7 km/h (2 Bft) 95,74 %
06.10.2018 08:24 10,1 C 10,0 C 10,0 C 95 % 1008,0 hPa 0,0 l/m 0 min 0 min 19 W/m 9,7 km/h (2 Bft) 97,87 %
06.10.2018 08:26 10,1 C 10,0 C 10,0 C 95 % 1008,1 hPa 0,0 l/m 0 min 0 min 20 W/m 12,9 km/h (3 Bft) 95,65 %
06.10.2018 08:28 10,2 C 10,6 C 10,0 C 96 % 1008,2 hPa 0,0 l/m 0 min 0 min 21 W/m 9,7 km/h (2 Bft) 93,62 %
06.10.2018 08:30 10,2 C 10,6 C 10,0 C 96 % 1008,2 hPa 0,0 l/m 0 min 0 min 21 W/m 12,9 km/h (3 Bft) 97,87 %
06.10.2018 08:32 10,2 C 10,6 C 10,0 C 96 % 1008,2 hPa 0,0 l/m 0 min 0 min 21 W/m 16,1 km/h (3 Bft) 97,96 %
06.10.2018 08:34 10,2 C 10,6 C 10,0 C 96 % 1008,2 hPa 0,0 l/m 0 min 0 min 22 W/m 6,4 km/h (2 Bft) 97,87 %
06.10.2018 08:36 10,3 C 10,6 C 10,0 C 96 % 1008,1 hPa 0,0 l/m 0 min 0 min 23 W/m 16,1 km/h (3 Bft) 95,74 %
06.10.2018 08:38 10,3 C 10,6 C 10,0 C 96 % 1008,1 hPa 0,0 l/m 0 min 0 min 23 W/m 12,9 km/h (3 Bft) 95,65 %
06.10.2018 08:40 10,4 C 10,6 C 10,0 C 96 % 1008,1 hPa 0,0 l/m 0 min 0 min 25 W/m 9,7 km/h (2 Bft) 95,74 %
06.10.2018 08:42 10,4 C 10,6 C 10,0 C 96 % 1008,1 hPa 0,0 l/m 0 min 0 min 25 W/m 12,9 km/h (3 Bft) 95,74 %
06.10.2018 08:44 10,4 C 10,6 C 10,0 C 96 % 1008,1 hPa 0,0 l/m 0 min 0 min 25 W/m 9,7 km/h (2 Bft) 95,74 %
06.10.2018 08:46 10,5 C 10,6 C 10,0 C 96 % 1008,1 hPa 0,0 l/m 0 min 0 min 26 W/m 16,1 km/h (3 Bft) 93,62 %
06.10.2018 08:48 10,5 C 10,6 C 10,0 C 96 % 1008,1 hPa 0,0 l/m 0 min 0 min 26 W/m 6,4 km/h (2 Bft) 97,87 %
06.10.2018 08:50 10,6 C 11,1 C 10,0 C 96 % 1008,1 hPa 0,0 l/m 0 min 0 min 26 W/m 9,7 km/h (2 Bft) 95,65 %
06.10.2018 08:52 10,6 C 11,1 C 10,0 C 96 % 1008,1 hPa 0,0 l/m 0 min 0 min 26 W/m 9,7 km/h (2 Bft) 97,87 %
06.10.2018 08:54 10,6 C 11,1 C 10,0 C 96 % 1008,1 hPa 0,0 l/m 0 min 0 min 28 W/m 9,7 km/h (2 Bft) 97,87 %
06.10.2018 08:56 10,7 C 11,1 C 10,6 C 96 % 1008,1 hPa 0,0 l/m 0 min 0 min 28 W/m 3,2 km/h (1 Bft) 97,87 %
06.10.2018 08:58 10,7 C 11,1 C 10,6 C 96 % 1008,1 hPa 0,0 l/m 0 min 0 min 28 W/m 9,7 km/h (2 Bft) 97,87 %
06.10.2018 09:00 10,7 C 11,1 C 10,6 C 96 % 1008,1 hPa 0,0 l/m 0 min 0 min 29 W/m 6,4 km/h (2 Bft) 97,87 %
06.10.2018 09:02 10,8 C 11,1 C 10,6 C 96 % 1008,1 hPa 0,0 l/m 0 min 0 min 30 W/m 6,4 km/h (2 Bft) 93,62 %
06.10.2018 09:04 10,8 C 11,7 C 10,6 C 96 % 1008,1 hPa 0,0 l/m 0 min 0 min 30 W/m 6,4 km/h (2 Bft) 97,87 %
06.10.2018 09:06 10,9 C 11,7 C 10,6 C 96 % 1008,0 hPa 0,0 l/m 0 min 0 min 30 W/m 9,7 km/h (2 Bft) 97,87 %
06.10.2018 09:08 10,9 C 11,7 C 10,6 C 96 % 1007,9 hPa 0,0 l/m 0 min 0 min 32 W/m 6,4 km/h (2 Bft) 95,74 %
06.10.2018 09:10 10,9 C 11,7 C 10,6 C 96 % 1007,9 hPa 0,0 l/m 0 min 0 min 32 W/m 6,4 km/h (2 Bft) 95,74 %
06.10.2018 09:12 11,0 C 11,7 C 10,6 C 96 % 1007,9 hPa 0,0 l/m 0 min 0 min 32 W/m 6,4 km/h (2 Bft) 97,83 %
06.10.2018 09:14 11,0 C 11,7 C 10,6 C 96 % 1008,0 hPa 0,0 l/m 0 min 0 min 33 W/m 6,4 km/h (2 Bft) 97,87 %
06.10.2018 09:16 11,1 C 11,7 C 10,6 C 96 % 1007,9 hPa 0,0 l/m 0 min 0 min 33 W/m 12,9 km/h (3 Bft) 95,92 %
06.10.2018 09:18 11,1 C 12,2 C 10,6 C 96 % 1007,9 hPa 0,0 l/m 0 min 0 min 33 W/m 12,9 km/h (3 Bft) 97,87 %
06.10.2018 09:20 11,2 C 12,2 C 10,6 C 96 % 1007,9 hPa 0,0 l/m 0 min 0 min 33 W/m 6,4 km/h (2 Bft) 97,87 %
06.10.2018 09:22 11,2 C 12,2 C 10,6 C 96 % 1007,9 hPa 0,0 l/m 0 min 0 min 34 W/m 6,4 km/h (2 Bft) 97,92 %
06.10.2018 09:24 11,3 C 12,2 C 10,6 C 96 % 1007,9 hPa 0,0 l/m 0 min 0 min 35 W/m 22,5 km/h (4 Bft) 97,87 %
06.10.2018 09:26 11,3 C 12,2 C 11,1 C 96 % 1007,9 hPa 0,0 l/m 0 min 0 min 35 W/m 9,7 km/h (2 Bft) 100,00 %
06.10.2018 09:28 11,4 C 12,2 C 11,1 C 96 % 1007,8 hPa 0,0 l/m 0 min 0 min 35 W/m 12,9 km/h (3 Bft) 100,00 %
06.10.2018 09:30 11,4 C 12,2 C 11,1 C 96 % 1007,8 hPa 0,0 l/m 0 min 0 min 37 W/m 9,7 km/h (2 Bft) 100,00 %
06.10.2018 09:32 11,5 C 12,8 C 11,1 C 96 % 1007,8 hPa 0,0 l/m 0 min 0 min 37 W/m 16,1 km/h (3 Bft) 100,00 %
06.10.2018 09:34 11,6 C 12,8 C 11,1 C 96 % 1007,9 hPa 0,0 l/m 0 min 0 min 37 W/m 22,5 km/h (4 Bft) 100,00 %
06.10.2018 09:36 11,6 C 12,8 C 11,1 C 96 % 1007,9 hPa 0,0 l/m 0 min 0 min 38 W/m 12,9 km/h (3 Bft) 100,00 %
06.10.2018 09:38 11,7 C 12,8 C 11,1 C 96 % 1007,9 hPa 0,0 l/m 0 min 0 min 39 W/m 16,1 km/h (3 Bft) 100,00 %
06.10.2018 09:40 11,8 C 12,8 C 11,1 C 96 % 1007,9 hPa 0,0 l/m 0 min 0 min 39 W/m 22,5 km/h (4 Bft) 100,00 %
06.10.2018 09:42 11,8 C 12,8 C 11,1 C 96 % 1007,9 hPa 0,0 l/m 0 min 0 min 53 W/m 19,3 km/h (3 Bft) 100,00 %
06.10.2018 09:44 11,9 C 12,8 C 11,7 C 96 % 1007,9 hPa 0,0 l/m 0 min 0 min 142 W/m 16,1 km/h (3 Bft) 100,00 %
06.10.2018 09:46 12,0 C 13,3 C 11,7 C 96 % 1007,8 hPa 0,0 l/m 2 min 0 min 158 W/m 19,3 km/h (3 Bft) 100,00 %
06.10.2018 09:48 12,1 C 13,3 C 11,7 C 96 % 1007,8 hPa 0,0 l/m 2 min 0 min 162 W/m 16,1 km/h (3 Bft) 100,00 %
06.10.2018 09:50 12,1 C 13,3 C 11,7 C 96 % 1007,9 hPa 0,0 l/m 2 min 0 min 169 W/m 12,9 km/h (3 Bft) 100,00 %
06.10.2018 09:52 12,2 C 13,9 C 11,7 C 96 % 1007,8 hPa 0,0 l/m 2 min 0 min 156 W/m 19,3 km/h (3 Bft) 100,00 %
06.10.2018 09:54 12,3 C 13,9 C 11,7 C 96 % 1007,9 hPa 0,0 l/m 0 min 0 min 146 W/m 12,9 km/h (3 Bft) 100,00 %
06.10.2018 09:56 12,3 C 13,9 C 11,7 C 96 % 1007,8 hPa 0,0 l/m 0 min 0 min 131 W/m 22,5 km/h (4 Bft) 100,00 %
06.10.2018 09:58 12,4 C 15,0 C 11,7 C 96 % 1007,7 hPa 0,0 l/m 2 min 0 min 161 W/m 22,5 km/h (4 Bft) 100,00 %
06.10.2018 10:00 12,5 C 15,6 C 11,7 C 95 % 1007,7 hPa 0,0 l/m 0 min 0 min 121 W/m 9,7 km/h (2 Bft) 100,00 %
06.10.2018 10:02 12,6 C 16,7 C 11,7 C 95 % 1007,7 hPa 0,0 l/m 0 min 0 min 53 W/m 9,7 km/h (2 Bft) 100,00 %
06.10.2018 10:04 12,6 C 16,7 C 11,7 C 95 % 1007,7 hPa 0,0 l/m 0 min 0 min 58 W/m 12,9 km/h (3 Bft) 100,00 %
06.10.2018 10:06 12,7 C 16,7 C 11,7 C 95 % 1007,7 hPa 0,0 l/m 0 min 0 min 49 W/m 9,7 km/h (2 Bft) 100,00 %
06.10.2018 10:08 12,8 C 17,8 C 11,7 C 95 % 1007,7 hPa 0,0 l/m 0 min 0 min 42 W/m 12,9 km/h (3 Bft) 100,00 %
06.10.2018 10:10 13,0 C 18,3 C 12,2 C 95 % 1007,6 hPa 0,0 l/m 0 min 0 min 44 W/m 19,3 km/h (3 Bft) 100,00 %
06.10.2018 10:12 13,1 C 19,4 C 12,2 C 95 % 1007,6 hPa 0,0 l/m 0 min 0 min 44 W/m 12,9 km/h (3 Bft) 95,74 %
06.10.2018 10:14 13,2 C 20,6 C 12,2 C 95 % 1007,6 hPa 0,0 l/m 0 min 0 min 54 W/m 9,7 km/h (2 Bft) 97,87 %
06.10.2018 10:16 13,4 C 20,6 C 12,2 C 95 % 1007,7 hPa 0,0 l/m 0 min 0 min 47 W/m 19,3 km/h (3 Bft) 93,62 %
06.10.2018 10:18 13,5 C 21,1 C 12,2 C 94 % 1007,7 hPa 0,0 l/m 0 min 0 min 44 W/m 16,1 km/h (3 Bft) 97,87 %
06.10.2018 10:20 13,7 C 21,7 C 12,2 C 94 % 1007,7 hPa 0,0 l/m 0 min 0 min 45 W/m 9,7 km/h (2 Bft) 97,87 %
06.10.2018 10:22 13,8 C 21,7 C 12,2 C 93 % 1007,7 hPa 0,0 l/m 0 min 0 min 45 W/m 12,9 km/h (3 Bft) 97,83 %
06.10.2018 10:24 14,0 C 22,2 C 12,2 C 93 % 1007,7 hPa 0,0 l/m 0 min 0 min 45 W/m 12,9 km/h (3 Bft) 97,87 %
06.10.2018 10:26 14,2 C 22,2 C 12,2 C 93 % 1007,6 hPa 0,0 l/m 0 min 0 min 46 W/m 16,1 km/h (3 Bft) 97,87 %
06.10.2018 10:28 14,2 C 22,2 C 12,2 C 92 % 1007,6 hPa 0,0 l/m 0 min 0 min 46 W/m 16,1 km/h (3 Bft) 97,87 %
06.10.2018 10:30 14,5 C 21,7 C 12,8 C 92 % 1007,5 hPa 0,0 l/m 0 min 0 min 46 W/m 12,9 km/h (3 Bft) 95,74 %
06.10.2018 10:32 14,7 C 22,2 C 12,8 C 91 % 1007,6 hPa 0,0 l/m 0 min 0 min 46 W/m 12,9 km/h (3 Bft) 95,65 %
06.10.2018 10:34 14,9 C 22,2 C 12,8 C 90 % 1007,6 hPa 0,0 l/m 0 min 0 min 50 W/m 16,1 km/h (3 Bft) 97,87 %
06.10.2018 10:36 15,1 C 22,2 C 12,8 C 89 % 1007,5 hPa 0,0 l/m 0 min 0 min 64 W/m 12,9 km/h (3 Bft) 95,74 %
06.10.2018 10:38 15,3 C 22,2 C 12,8 C 88 % 1007,4 hPa 0,0 l/m 0 min 0 min 164 W/m 16,1 km/h (3 Bft) 97,87 %
06.10.2018 10:40 15,4 C 22,8 C 12,8 C 87 % 1007,4 hPa 0,0 l/m 2 min 0 min 238 W/m 16,1 km/h (3 Bft) 97,87 %
06.10.2018 10:42 15,6 C 22,2 C 12,8 C 86 % 1007,3 hPa 0,0 l/m 2 min 0 min 301 W/m 12,9 km/h (3 Bft) 95,74 %
06.10.2018 10:44 15,8 C 23,3 C 12,8 C 86 % 1007,3 hPa 0,0 l/m 2 min 0 min 306 W/m 9,7 km/h (2 Bft) 100,00 %
06.10.2018 10:46 16,0 C 23,9 C 12,8 C 85 % 1007,3 hPa 0,0 l/m 2 min 0 min 311 W/m 16,1 km/h (3 Bft) 95,83 %
06.10.2018 10:48 16,2 C 23,9 C 12,8 C 85 % 1007,3 hPa 0,0 l/m 2 min 0 min 316 W/m 16,1 km/h (3 Bft) 97,87 %
06.10.2018 10:50 16,3 C 23,9 C 12,8 C 84 % 1007,4 hPa 0,0 l/m 2 min 0 min 315 W/m 16,1 km/h (3 Bft) 95,74 %
06.10.2018 10:52 16,5 C 23,3 C 13,3 C 83 % 1007,3 hPa 0,0 l/m 2 min 0 min 279 W/m 16,1 km/h (3 Bft) 97,87 %
06.10.2018 10:54 16,7 C 23,9 C 13,3 C 82 % 1007,3 hPa 0,0 l/m 2 min 0 min 301 W/m 12,9 km/h (3 Bft) 97,87 %
06.10.2018 10:56 16,8 C 23,9 C 13,3 C 82 % 1007,3 hPa 0,0 l/m 2 min 0 min 323 W/m 16,1 km/h (3 Bft) 97,83 %
06.10.2018 10:58 17,0 C 23,9 C 13,3 C 81 % 1007,3 hPa 0,0 l/m 2 min 0 min 308 W/m 16,1 km/h (3 Bft) 97,87 %
06.10.2018 11:00 17,2 C 24,4 C 13,3 C 81 % 1007,3 hPa 0,0 l/m 2 min 0 min 276 W/m 16,1 km/h (3 Bft) 97,87 %
06.10.2018 11:02 17,3 C 23,3 C 13,9 C 80 % 1007,2 hPa 0,0 l/m 0 min 0 min 197 W/m 22,5 km/h (4 Bft) 97,87 %
06.10.2018 11:04 17,4 C 23,3 C 13,9 C 79 % 1007,3 hPa 0,0 l/m 2 min 0 min 234 W/m 19,3 km/h (3 Bft) 93,62 %
06.10.2018 11:06 17,6 C 24,4 C 13,9 C 79 % 1007,3 hPa 0,0 l/m 0 min 0 min 182 W/m 12,9 km/h (3 Bft) 97,87 %
06.10.2018 11:08 17,7 C 25,0 C 13,9 C 79 % 1007,2 hPa 0,0 l/m 2 min 0 min 276 W/m 9,7 km/h (2 Bft) 95,65 %
06.10.2018 11:10 17,8 C 25,0 C 13,9 C 79 % 1007,2 hPa 0,0 l/m 2 min 0 min 253 W/m 16,1 km/h (3 Bft) 97,87 %
06.10.2018 11:12 17,9 C 25,6 C 13,9 C 79 % 1007,2 hPa 0,0 l/m 2 min 0 min 356 W/m 9,7 km/h (2 Bft) 97,87 %
06.10.2018 11:14 18,1 C 26,1 C 13,9 C 78 % 1007,2 hPa 0,0 l/m 2 min 0 min 365 W/m 9,7 km/h (2 Bft) 97,87 %
06.10.2018 11:16 18,2 C 25,0 C 13,9 C 78 % 1007,1 hPa 0,0 l/m 2 min 0 min 366 W/m 16,1 km/h (3 Bft) 95,83 %
06.10.2018 11:18 18,3 C 25,0 C 13,9 C 77 % 1007,1 hPa 0,0 l/m 2 min 0 min 318 W/m 12,9 km/h (3 Bft) 97,83 %
06.10.2018 11:20 18,5 C 25,6 C 14,4 C 77 % 1007,1 hPa 0,0 l/m 0 min 0 min 149 W/m 16,1 km/h (3 Bft) 97,87 %
06.10.2018 11:22 18,7 C 25,6 C 14,4 C 76 % 1007,1 hPa 0,0 l/m 0 min 0 min 98 W/m 9,7 km/h (2 Bft) 100,00 %
06.10.2018 11:24 18,8 C 25,0 C 14,4 C 76 % 1007,1 hPa 0,0 l/m 0 min 0 min 71 W/m 12,9 km/h (3 Bft) 100,00 %
06.10.2018 11:26 18,9 C 26,7 C 14,4 C 76 % 1007,0 hPa 0,0 l/m 0 min 0 min 200 W/m 6,4 km/h (2 Bft) 100,00 %
06.10.2018 11:28 19,1 C 26,7 C 14,4 C 76 % 1007,0 hPa 0,0 l/m 0 min 0 min 231 W/m 9,7 km/h (2 Bft) 97,87 %
06.10.2018 11:30 19,2 C 26,7 C 14,4 C 75 % 1007,0 hPa 0,0 l/m 2 min 0 min 358 W/m 9,7 km/h (2 Bft) 100,00 %
06.10.2018 11:32 19,3 C 26,7 C 14,4 C 75 % 1006,9 hPa 0,0 l/m 2 min 0 min 324 W/m 16,1 km/h (3 Bft) 100,00 %
06.10.2018 11:34 19,5 C 26,7 C 14,4 C 75 % 1007,0 hPa 0,0 l/m 2 min 0 min 319 W/m 16,1 km/h (3 Bft) 100,00 %
06.10.2018 11:36 19,6 C 26,7 C 14,4 C 75 % 1006,9 hPa 0,0 l/m 0 min 0 min 193 W/m 9,7 km/h (2 Bft) 97,87 %
06.10.2018 11:38 19,7 C 26,1 C 15,0 C 73 % 1007,0 hPa 0,0 l/m 0 min 0 min 108 W/m 16,1 km/h (3 Bft) 100,00 %
06.10.2018 11:40 19,8 C 26,7 C 15,0 C 73 % 1007,0 hPa 0,0 l/m 0 min 0 min 56 W/m 12,9 km/h (3 Bft) 100,00 %
06.10.2018 11:42 19,9 C 26,7 C 15,0 C 73 % 1007,0 hPa 0,0 l/m 0 min 0 min 57 W/m 12,9 km/h (3 Bft) 100,00 %
06.10.2018 11:44 20,0 C 26,7 C 15,0 C 73 % 1007,0 hPa 0,0 l/m 0 min 0 min 57 W/m 12,9 km/h (3 Bft) 97,87 %
06.10.2018 11:46 20,1 C 27,2 C 15,0 C 73 % 1007,0 hPa 0,0 l/m 0 min 0 min 65 W/m 9,7 km/h (2 Bft) 100,00 %
06.10.2018 11:48 20,2 C 27,2 C 15,0 C 73 % 1007,0 hPa 0,0 l/m 0 min 0 min 84 W/m 12,9 km/h (3 Bft) 100,00 %
06.10.2018 11:50 20,3 C 26,1 C 15,0 C 71 % 1007,0 hPa 0,0 l/m 0 min 0 min 86 W/m 19,3 km/h (3 Bft) 100,00 %
06.10.2018 11:52 20,4 C 27,2 C 15,6 C 71 % 1007,0 hPa 0,0 l/m 0 min 0 min 58 W/m 12,9 km/h (3 Bft) 100,00 %
06.10.2018 11:54 20,4 C 27,8 C 15,0 C 71 % 1007,0 hPa 0,0 l/m 0 min 0 min 57 W/m 6,4 km/h (2 Bft) 100,00 %
06.10.2018 11:56 20,5 C 27,2 C 15,6 C 71 % 1007,0 hPa 0,0 l/m 0 min 0 min 60 W/m 16,1 km/h (3 Bft) 100,00 %
06.10.2018 11:58 20,6 C 26,7 C 15,6 C 70 % 1007,0 hPa 0,0 l/m 0 min 0 min 89 W/m 19,3 km/h (3 Bft) 100,00 %
06.10.2018 12:00 20,7 C 26,1 C 15,6 C 70 % 1007,0 hPa 0,0 l/m 0 min 0 min 81 W/m 12,9 km/h (3 Bft) 100,00 %
06.10.2018 12:02 20,7 C 26,7 C 15,6 C 70 % 1007,0 hPa 0,0 l/m 0 min 0 min 141 W/m 9,7 km/h (2 Bft) 100,00 %
06.10.2018 12:04 20,8 C 27,2 C 15,6 C 70 % 1007,0 hPa 0,0 l/m 0 min 0 min 240 W/m 12,9 km/h (3 Bft) 100,00 %
06.10.2018 12:06 20,8 C 27,2 C 16,1 C 70 % 1007,1 hPa 0,0 l/m 0 min 0 min 132 W/m 12,9 km/h (3 Bft) 100,00 %
06.10.2018 12:08 20,9 C 28,3 C 15,6 C 71 % 1007,0 hPa 0,0 l/m 0 min 0 min 92 W/m 6,4 km/h (2 Bft) 100,00 %
06.10.2018 12:10 20,9 C 28,3 C 15,6 C 70 % 1006,9 hPa 0,0 l/m 0 min 0 min 80 W/m 12,9 km/h (3 Bft) 97,83 %
06.10.2018 12:12 21,0 C 28,3 C 15,6 C 69 % 1007,0 hPa 0,0 l/m 0 min 0 min 63 W/m 12,9 km/h (3 Bft) 100,00 %
06.10.2018 12:14 21,1 C 28,3 C 15,6 C 70 % 1007,0 hPa 0,0 l/m 0 min 0 min 69 W/m 12,9 km/h (3 Bft) 100,00 %
06.10.2018 12:16 21,2 C 28,9 C 15,6 C 69 % 1007,0 hPa 0,0 l/m 0 min 0 min 62 W/m 9,7 km/h (2 Bft) 100,00 %
06.10.2018 12:18 21,3 C 28,9 C 16,1 C 70 % 1006,9 hPa 0,0 l/m 0 min 0 min 62 W/m 19,3 km/h (3 Bft) 100,00 %
06.10.2018 12:20 21,3 C 28,3 C 16,1 C 69 % 1006,9 hPa 0,0 l/m 0 min 0 min 68 W/m 9,7 km/h (2 Bft) 97,87 %
06.10.2018 12:22 21,4 C 27,8 C 16,1 C 69 % 1006,9 hPa 0,0 l/m 0 min 0 min 73 W/m 12,9 km/h (3 Bft) 97,87 %
06.10.2018 12:24 21,5 C 27,8 C 16,1 C 68 % 1006,9 hPa 0,0 l/m 0 min 0 min 80 W/m 6,4 km/h (2 Bft) 97,87 %
06.10.2018 12:26 21,6 C 28,3 C 16,1 C 68 % 1006,9 hPa 0,0 l/m 0 min 0 min 65 W/m 6,4 km/h (2 Bft) 97,87 %
06.10.2018 12:28 21,6 C 28,3 C 16,7 C 69 % 1006,9 hPa 0,0 l/m 0 min 0 min 72 W/m 9,7 km/h (2 Bft) 97,87 %
06.10.2018 12:30 21,7 C 27,2 C 16,7 C 67 % 1006,9 hPa 0,0 l/m 0 min 0 min 71 W/m 16,1 km/h (3 Bft) 95,65 %
06.10.2018 12:32 21,7 C 28,3 C 16,7 C 68 % 1006,8 hPa 0,0 l/m 0 min 0 min 76 W/m 12,9 km/h (3 Bft) 97,87 %
06.10.2018 12:34 21,8 C 28,3 C 16,7 C 68 % 1006,8 hPa 0,0 l/m 0 min 0 min 69 W/m 9,7 km/h (2 Bft) 95,74 %
06.10.2018 12:36 21,8 C 27,8 C 16,7 C 68 % 1006,8 hPa 0,0 l/m 0 min 0 min 69 W/m 9,7 km/h (2 Bft) 97,87 %
06.10.2018 12:38 21,8 C 27,8 C 16,7 C 68 % 1006,8 hPa 0,0 l/m 0 min 0 min 77 W/m 16,1 km/h (3 Bft) 95,74 %
06.10.2018 12:40 21,8 C 27,2 C 16,7 C 68 % 1006,8 hPa 0,0 l/m 0 min 0 min 76 W/m 6,4 km/h (2 Bft) 97,87 %
06.10.2018 12:42 21,8 C 25,6 C 17,2 C 68 % 1006,7 hPa 0,0 l/m 0 min 0 min 86 W/m 6,4 km/h (2 Bft) 95,65 %
06.10.2018 12:44 21,8 C 24,4 C 17,2 C 68 % 1006,7 hPa 0,0 l/m 0 min 0 min 76 W/m 9,7 km/h (2 Bft) 97,87 %
06.10.2018 12:46 21,9 C 23,9 C 16,7 C 68 % 1006,7 hPa 0,0 l/m 0 min 0 min 93 W/m 6,4 km/h (2 Bft) 97,92 %
06.10.2018 12:48 21,9 C 23,3 C 17,2 C 68 % 1006,7 hPa 0,0 l/m 0 min 0 min 153 W/m 9,7 km/h (2 Bft) 93,62 %
06.10.2018 12:50 21,9 C 22,8 C 16,7 C 68 % 1006,6 hPa 0,0 l/m 0 min 0 min 185 W/m 9,7 km/h (2 Bft) 97,87 %
06.10.2018 12:52 21,9 C 22,2 C 17,2 C 68 % 1006,6 hPa 0,0 l/m 0 min 0 min 202 W/m 16,1 km/h (3 Bft) 95,74 %
06.10.2018 12:54 21,9 C 21,7 C 17,2 C 68 % 1006,6 hPa 0,0 l/m 0 min 0 min 183 W/m 12,9 km/h (3 Bft) 97,83 %
06.10.2018 12:56 21,9 C 21,7 C 16,7 C 68 % 1006,6 hPa 0,0 l/m 0 min 0 min 172 W/m 9,7 km/h (2 Bft) 97,87 %
06.10.2018 12:58 21,9 C 21,1 C 16,7 C 67 % 1006,5 hPa 0,0 l/m 0 min 0 min 164 W/m 12,9 km/h (3 Bft) 95,74 %
06.10.2018 13:00 21,9 C 21,1 C 17,2 C 68 % 1006,5 hPa 0,0 l/m 2 min 0 min 313 W/m 9,7 km/h (2 Bft) 97,87 %
06.10.2018 13:02 22,0 C 21,1 C 17,2 C 68 % 1006,4 hPa 0,0 l/m 0 min 0 min 225 W/m 9,7 km/h (2 Bft) 97,87 %
06.10.2018 13:04 21,9 C 21,7 C 17,8 C 68 % 1006,5 hPa 0,0 l/m 2 min 0 min 375 W/m 12,9 km/h (3 Bft) 97,87 %
06.10.2018 13:06 22,0 C 21,7 C 17,2 C 68 % 1006,4 hPa 0,0 l/m 2 min 0 min 440 W/m 6,4 km/h (2 Bft) 96,23 %
06.10.2018 13:08 21,9 C 21,7 C 17,2 C 68 % 1006,4 hPa 0,0 l/m 2 min 0 min 500 W/m 9,7 km/h (2 Bft) 97,87 %
06.10.2018 13:10 21,9 C 21,7 C 17,2 C 68 % 1006,4 hPa 0,0 l/m 2 min 0 min 430 W/m 9,7 km/h (2 Bft) 97,83 %
06.10.2018 13:12 21,9 C 21,7 C 17,8 C 68 % 1006,3 hPa 0,0 l/m 2 min 0 min 444 W/m 6,4 km/h (2 Bft) 97,87 %
06.10.2018 13:14 22,0 C 21,7 C 17,2 C 68 % 1006,3 hPa 0,0 l/m 2 min 0 min 421 W/m 9,7 km/h (2 Bft) 95,74 %
06.10.2018 13:16 21,9 C 21,7 C 17,8 C 68 % 1006,3 hPa 0,0 l/m 2 min 0 min 394 W/m 12,9 km/h (3 Bft) 97,56 %
06.10.2018 13:18 21,9 C 22,2 C 17,8 C 68 % 1006,3 hPa 0,0 l/m 2 min 0 min 485 W/m 6,4 km/h (2 Bft) 97,87 %
06.10.2018 13:20 22,0 C 22,2 C 17,8 C 68 % 1006,3 hPa 0,0 l/m 2 min 0 min 428 W/m 9,7 km/h (2 Bft) 97,87 %
06.10.2018 13:22 22,0 C 22,2 C 17,2 C 68 % 1006,2 hPa 0,0 l/m 2 min 0 min 437 W/m 9,7 km/h (2 Bft) 97,87 %
06.10.2018 13:24 22,1 C 22,2 C 17,8 C 68 % 1006,2 hPa 0,0 l/m 2 min 0 min 439 W/m 9,7 km/h (2 Bft) 97,87 %
06.10.2018 13:26 22,1 C 22,2 C 17,8 C 68 % 1006,2 hPa 0,0 l/m 2 min 0 min 459 W/m 6,4 km/h (2 Bft) 95,74 %
06.10.2018 13:28 22,1 C 22,2 C 17,8 C 68 % 1006,2 hPa 0,0 l/m 2 min 0 min 416 W/m 9,7 km/h (2 Bft) 95,65 %
06.10.2018 13:30 22,1 C 22,2 C 17,8 C 68 % 1006,1 hPa 0,0 l/m 2 min 0 min 450 W/m 12,9 km/h (3 Bft) 93,62 %
06.10.2018 13:32 22,2 C 22,2 C 17,8 C 68 % 1006,1 hPa 0,0 l/m 2 min 0 min 409 W/m 9,7 km/h (2 Bft) 93,88 %
06.10.2018 13:34 22,2 C 22,8 C 18,3 C 68 % 1006,1 hPa 0,0 l/m 2 min 0 min 454 W/m 16,1 km/h (3 Bft) 95,74 %
06.10.2018 13:36 22,2 C 22,8 C 18,3 C 68 % 1006,0 hPa 0,0 l/m 2 min 0 min 493 W/m 12,9 km/h (3 Bft) 95,74 %
06.10.2018 13:38 22,2 C 22,8 C 18,9 C 66 % 1005,9 hPa 0,0 l/m 2 min 0 min 458 W/m 12,9 km/h (3 Bft) 93,62 %
06.10.2018 13:40 22,3 C 22,8 C 18,9 C 66 % 1005,9 hPa 0,0 l/m 2 min 0 min 425 W/m 12,9 km/h (3 Bft) 95,65 %
06.10.2018 13:42 22,3 C 22,8 C 18,9 C 65 % 1005,9 hPa 0,0 l/m 2 min 0 min 478 W/m 12,9 km/h (3 Bft) 93,62 %
06.10.2018 13:44 22,4 C 22,8 C 19,4 C 65 % 1005,9 hPa 0,0 l/m 2 min 0 min 462 W/m 9,7 km/h (2 Bft) 97,87 %
06.10.2018 13:46 22,4 C 22,8 C 18,9 C 65 % 1005,8 hPa 0,0 l/m 2 min 0 min 434 W/m 9,7 km/h (2 Bft) 95,83 %
06.10.2018 13:48 22,4 C 22,8 C 18,9 C 65 % 1005,9 hPa 0,0 l/m 2 min 0 min 450 W/m 12,9 km/h (3 Bft) 95,74 %
06.10.2018 13:50 22,5 C 22,8 C 18,9 C 65 % 1005,8 hPa 0,0 l/m 2 min 0 min 433 W/m 9,7 km/h (2 Bft) 95,74 %
06.10.2018 13:52 22,6 C 23,3 C 18,9 C 65 % 1005,7 hPa 0,0 l/m 2 min 0 min 476 W/m 9,7 km/h (2 Bft) 93,48 %
06.10.2018 13:54 22,6 C 23,3 C 19,4 C 65 % 1005,7 hPa 0,0 l/m 2 min 0 min 494 W/m 9,7 km/h (2 Bft) 95,74 %
06.10.2018 13:56 22,7 C 23,3 C 19,4 C 65 % 1005,6 hPa 0,0 l/m 2 min 0 min 457 W/m 6,4 km/h (2 Bft) 94,29 %
06.10.2018 13:58 22,7 C 23,3 C 18,9 C 65 % 1005,6 hPa 0,0 l/m 2 min 0 min 442 W/m 6,4 km/h (2 Bft) 95,74 %
06.10.2018 14:00 22,8 C 23,3 C 18,9 C 65 % 1005,6 hPa 0,0 l/m 2 min 0 min 404 W/m 9,7 km/h (2 Bft) 96,61 %
06.10.2018 14:02 22,8 C 23,3 C 19,4 C 65 % 1005,5 hPa 0,0 l/m 2 min 0 min 428 W/m 12,9 km/h (3 Bft) 97,14 %
06.10.2018 14:04 22,9 C 23,3 C 19,4 C 65 % 1005,5 hPa 0,0 l/m 2 min 0 min 428 W/m 6,4 km/h (2 Bft) 98,28 %
06.10.2018 14:06 22,9 C 23,3 C 19,4 C 65 % 1005,5 hPa 0,0 l/m 2 min 0 min 432 W/m 9,7 km/h (2 Bft) 97,14 %
06.10.2018 14:08 22,9 C 23,3 C 19,4 C 64 % 1005,5 hPa 0,0 l/m 2 min 0 min 434 W/m 9,7 km/h (2 Bft) 95,74 %
06.10.2018 14:10 23,0 C 23,3 C 19,4 C 65 % 1005,5 hPa 0,0 l/m 2 min 0 min 404 W/m 9,7 km/h (2 Bft) 97,87 %
06.10.2018 14:12 23,1 C 23,3 C 19,4 C 64 % 1005,4 hPa 0,0 l/m 2 min 0 min 418 W/m 9,7 km/h (2 Bft) 97,87 %
06.10.2018 14:14 23,1 C 23,3 C 19,4 C 64 % 1005,5 hPa 0,0 l/m 2 min 0 min 426 W/m 12,9 km/h (3 Bft) 97,87 %
06.10.2018 14:16 23,1 C 23,3 C 19,4 C 63 % 1005,3 hPa 0,0 l/m 2 min 0 min 379 W/m 12,9 km/h (3 Bft) 93,75 %
06.10.2018 14:18 23,2 C 23,3 C 19,4 C 63 % 1005,4 hPa 0,0 l/m 2 min 0 min 359 W/m 6,4 km/h (2 Bft) 97,83 %
06.10.2018 14:20 23,2 C 23,3 C 19,4 C 63 % 1005,4 hPa 0,0 l/m 2 min 0 min 328 W/m 9,7 km/h (2 Bft) 97,87 %
06.10.2018 14:22 23,2 C 23,9 C 19,4 C 64 % 1005,3 hPa 0,0 l/m 2 min 0 min 272 W/m 6,4 km/h (2 Bft) 97,87 %
06.10.2018 14:24 23,3 C 23,9 C 19,4 C 64 % 1005,4 hPa 0,0 l/m 0 min 0 min 186 W/m 3,2 km/h (1 Bft) 93,62 %
06.10.2018 14:26 23,3 C 23,9 C 19,4 C 63 % 1005,3 hPa 0,0 l/m 0 min 0 min 175 W/m 6,4 km/h (2 Bft) 97,87 %
06.10.2018 14:28 23,3 C 23,9 C 19,4 C 64 % 1005,3 hPa 0,0 l/m 0 min 0 min 146 W/m 9,7 km/h (2 Bft) 97,83 %
06.10.2018 14:30 23,4 C 23,9 C 20,0 C 63 % 1005,3 hPa 0,0 l/m 0 min 0 min 138 W/m 9,7 km/h (2 Bft) 100,00 %
06.10.2018 14:32 23,4 C 23,9 C 20,0 C 61 % 1005,2 hPa 0,0 l/m 0 min 0 min 154 W/m 9,7 km/h (2 Bft) 95,83 %
06.10.2018 14:34 23,4 C 23,9 C 20,0 C 61 % 1005,2 hPa 0,0 l/m 0 min 0 min 152 W/m 12,9 km/h (3 Bft) 100,00 %
06.10.2018 14:36 23,5 C 23,9 C 20,6 C 62 % 1005,2 hPa 0,0 l/m 0 min 0 min 186 W/m 12,9 km/h (3 Bft) 100,00 %
06.10.2018 14:38 23,6 C 23,9 C 20,6 C 61 % 1005,2 hPa 0,0 l/m 2 min 0 min 306 W/m 9,7 km/h (2 Bft) 100,00 %
06.10.2018 14:40 23,6 C 23,9 C 20,6 C 60 % 1005,2 hPa 0,0 l/m 0 min 0 min 237 W/m 9,7 km/h (2 Bft) 100,00 %
06.10.2018 14:42 23,6 C 23,9 C 20,6 C 60 % 1005,2 hPa 0,0 l/m 2 min 0 min 292 W/m 9,7 km/h (2 Bft) 97,87 %
06.10.2018 14:44 23,6 C 23,9 C 20,6 C 60 % 1005,2 hPa 0,0 l/m 2 min 0 min 285 W/m 9,7 km/h (2 Bft) 100,00 %
06.10.2018 14:46 23,7 C 23,9 C 20,0 C 60 % 1005,1 hPa 0,0 l/m 2 min 0 min 417 W/m 6,4 km/h (2 Bft) 100,00 %
06.10.2018 14:48 23,7 C 23,9 C 20,6 C 60 % 1005,2 hPa 0,0 l/m 2 min 0 min 428 W/m 9,7 km/h (2 Bft) 100,00 %
06.10.2018 14:50 23,7 C 23,9 C 20,6 C 60 % 1005,1 hPa 0,0 l/m 2 min 0 min 412 W/m 6,4 km/h (2 Bft) 100,00 %
06.10.2018 14:52 23,7 C 23,9 C 20,6 C 60 % 1005,0 hPa 0,0 l/m 2 min 0 min 406 W/m 6,4 km/h (2 Bft) 97,87 %
06.10.2018 14:54 23,8 C 23,9 C 20,0 C 61 % 1005,1 hPa 0,0 l/m 2 min 0 min 430 W/m 6,4 km/h (2 Bft) 100,00 %
06.10.2018 14:56 23,8 C 23,9 C 20,0 C 60 % 1005,1 hPa 0,0 l/m 2 min 0 min 415 W/m 9,7 km/h (2 Bft) 100,00 %
06.10.2018 14:58 23,8 C 23,9 C 20,6 C 60 % 1005,1 hPa 0,0 l/m 2 min 0 min 424 W/m 9,7 km/h (2 Bft) 100,00 %
06.10.2018 15:00 23,9 C 24,4 C 20,0 C 61 % 1005,0 hPa 0,0 l/m 2 min 0 min 360 W/m 6,4 km/h (2 Bft) 97,87 %
06.10.2018 15:02 23,9 C 24,4 C 20,0 C 59 % 1005,0 hPa 0,0 l/m 0 min 0 min 242 W/m 6,4 km/h (2 Bft) 97,87 %
06.10.2018 15:04 23,9 C 24,4 C 20,0 C 59 % 1005,0 hPa 0,0 l/m 2 min 0 min 254 W/m 9,7 km/h (2 Bft) 97,87 %
06.10.2018 15:06 23,9 C 24,4 C 20,0 C 59 % 1005,0 hPa 0,0 l/m 2 min 0 min 352 W/m 12,9 km/h (3 Bft) 97,87 %
06.10.2018 15:08 23,9 C 24,4 C 20,6 C 58 % 1004,9 hPa 0,0 l/m 2 min 0 min 413 W/m 6,4 km/h (2 Bft) 97,83 %
06.10.2018 15:10 23,9 C 23,9 C 20,6 C 58 % 1004,9 hPa 0,0 l/m 2 min 0 min 274 W/m 6,4 km/h (2 Bft) 97,87 %
06.10.2018 15:12 24,0 C 23,9 C 20,0 C 59 % 1004,9 hPa 0,0 l/m 0 min 0 min 192 W/m 6,4 km/h (2 Bft) 93,62 %
06.10.2018 15:14 24,0 C 23,9 C 20,0 C 60 % 1004,9 hPa 0,0 l/m 0 min 0 min 186 W/m 3,2 km/h (1 Bft) 97,87 %
06.10.2018 15:16 24,0 C 23,9 C 19,4 C 61 % 1004,8 hPa 0,0 l/m 0 min 0 min 171 W/m 3,2 km/h (1 Bft) 97,87 %
06.10.2018 15:18 24,0 C 23,3 C 19,4 C 61 % 1004,8 hPa 0,0 l/m 0 min 0 min 169 W/m 6,4 km/h (2 Bft) 97,87 %
06.10.2018 15:20 24,0 C 23,3 C 20,0 C 59 % 1004,8 hPa 0,0 l/m 0 min 0 min 169 W/m 6,4 km/h (2 Bft) 97,87 %
06.10.2018 15:22 24,0 C 23,3 C 20,0 C 58 % 1004,8 hPa 0,0 l/m 0 min 0 min 183 W/m 6,4 km/h (2 Bft) 97,87 %
06.10.2018 15:24 23,9 C 23,3 C 20,0 C 58 % 1004,8 hPa 0,0 l/m 0 min 0 min 211 W/m 9,7 km/h (2 Bft) 97,87 %
06.10.2018 15:26 23,9 C 23,3 C 20,0 C 58 % 1004,8 hPa 0,0 l/m 0 min 0 min 195 W/m 6,4 km/h (2 Bft) 97,83 %
06.10.2018 15:28 23,9 C 23,3 C 20,0 C 58 % 1004,8 hPa 0,0 l/m 0 min 0 min 173 W/m 9,7 km/h (2 Bft) 95,74 %
06.10.2018 15:30 23,9 C 23,3 C 20,0 C 58 % 1004,8 hPa 0,0 l/m 0 min 0 min 162 W/m 9,7 km/h (2 Bft) 97,87 %
06.10.2018 15:32 23,9 C 23,3 C 20,6 C 58 % 1004,8 hPa 0,0 l/m 0 min 0 min 165 W/m 9,7 km/h (2 Bft) 97,87 %
06.10.2018 15:34 23,9 C 23,9 C 20,0 C 58 % 1004,7 hPa 0,0 l/m 0 min 0 min 184 W/m 6,4 km/h (2 Bft) 97,87 %
06.10.2018 15:36 23,9 C 23,9 C 20,0 C 59 % 1004,7 hPa 0,0 l/m 0 min 0 min 195 W/m 6,4 km/h (2 Bft) 97,87 %
06.10.2018 15:38 23,9 C 23,9 C 20,0 C 58 % 1004,8 hPa 0,0 l/m 0 min 0 min 212 W/m 6,4 km/h (2 Bft) 97,83 %
06.10.2018 15:40 23,9 C 23,9 C 20,0 C 58 % 1004,8 hPa 0,0 l/m 2 min 0 min 234 W/m 6,4 km/h (2 Bft) 97,87 %
06.10.2018 15:42 23,9 C 23,9 C 20,0 C 58 % 1004,7 hPa 0,0 l/m 2 min 0 min 302 W/m 6,4 km/h (2 Bft) 100,00 %
06.10.2018 15:44 23,9 C 23,9 C 20,6 C 58 % 1004,7 hPa 0,0 l/m 2 min 0 min 434 W/m 6,4 km/h (2 Bft) 100,00 %
06.10.2018 15:46 23,9 C 24,4 C 20,6 C 59 % 1004,7 hPa 0,0 l/m 2 min 0 min 470 W/m 6,4 km/h (2 Bft) 97,87 %
06.10.2018 15:48 24,0 C 25,0 C 20,0 C 60 % 1004,7 hPa 0,0 l/m 2 min 0 min 428 W/m 6,4 km/h (2 Bft) 100,00 %
06.10.2018 15:50 24,0 C 25,0 C 20,0 C 61 % 1004,6 hPa 0,0 l/m 2 min 0 min 355 W/m 6,4 km/h (2 Bft) 100,00 %
06.10.2018 15:52 24,0 C 25,0 C 20,6 C 59 % 1004,6 hPa 0,0 l/m 2 min 0 min 368 W/m 9,7 km/h (2 Bft) 97,87 %
06.10.2018 15:54 24,1 C 25,0 C 20,6 C 59 % 1004,6 hPa 0,0 l/m 2 min 0 min 406 W/m 9,7 km/h (2 Bft) 97,87 %
06.10.2018 15:56 24,1 C 24,4 C 20,6 C 58 % 1004,6 hPa 0,0 l/m 2 min 0 min 411 W/m 9,7 km/h (2 Bft) 97,83 %
06.10.2018 15:58 24,2 C 24,4 C 20,6 C 58 % 1004,5 hPa 0,0 l/m 2 min 0 min 408 W/m 9,7 km/h (2 Bft) 100,00 %
06.10.2018 16:00 24,2 C 25,0 C 20,6 C 58 % 1004,5 hPa 0,0 l/m 2 min 0 min 390 W/m 6,4 km/h (2 Bft) 100,00 %
06.10.2018 16:02 24,2 C 25,0 C 20,0 C 58 % 1004,5 hPa 0,0 l/m 2 min 0 min 377 W/m 9,7 km/h (2 Bft) 97,87 %
06.10.2018 16:04 24,3 C 25,0 C 20,6 C 58 % 1004,5 hPa 0,0 l/m 2 min 0 min 399 W/m 6,4 km/h (2 Bft) 100,00 %
06.10.2018 16:06 24,3 C 25,0 C 20,0 C 58 % 1004,4 hPa 0,0 l/m 2 min 0 min 404 W/m 12,9 km/h (3 Bft) 97,87 %
06.10.2018 16:08 24,4 C 25,0 C 20,0 C 59 % 1004,4 hPa 0,0 l/m 2 min 0 min 401 W/m 6,4 km/h (2 Bft) 100,00 %
06.10.2018 16:10 24,4 C 25,0 C 20,6 C 58 % 1004,4 hPa 0,0 l/m 2 min 0 min 382 W/m 9,7 km/h (2 Bft) 100,00 %
06.10.2018 16:12 24,4 C 25,0 C 20,0 C 58 % 1004,4 hPa 0,0 l/m 2 min 0 min 373 W/m 9,7 km/h (2 Bft) 97,87 %
06.10.2018 16:14 24,4 C 25,6 C 20,6 C 57 % 1004,4 hPa 0,0 l/m 2 min 0 min 377 W/m 9,7 km/h (2 Bft) 97,87 %
06.10.2018 16:16 24,5 C 25,6 C 20,6 C 58 % 1004,3 hPa 0,0 l/m 2 min 0 min 385 W/m 16,1 km/h (3 Bft) 97,87 %
06.10.2018 16:18 24,6 C 25,6 C 20,6 C 57 % 1004,3 hPa 0,0 l/m 2 min 0 min 375 W/m 16,1 km/h (3 Bft) 97,83 %
06.10.2018 16:20 24,6 C 26,1 C 20,6 C 57 % 1004,3 hPa 0,0 l/m 2 min 0 min 376 W/m 6,4 km/h (2 Bft) 95,74 %
06.10.2018 16:22 24,6 C 26,7 C 20,6 C 57 % 1004,3 hPa 0,0 l/m 2 min 0 min 376 W/m 9,7 km/h (2 Bft) 97,87 %
06.10.2018 16:24 24,7 C 26,1 C 20,6 C 56 % 1004,2 hPa 0,0 l/m 2 min 0 min 366 W/m 9,7 km/h (2 Bft) 97,87 %
06.10.2018 16:26 24,7 C 26,1 C 20,6 C 56 % 1004,2 hPa 0,0 l/m 2 min 0 min 358 W/m 12,9 km/h (3 Bft) 97,87 %
06.10.2018 16:28 24,7 C 25,6 C 20,6 C 56 % 1004,2 hPa 0,0 l/m 2 min 0 min 337 W/m 12,9 km/h (3 Bft) 97,87 %
06.10.2018 16:30 24,7 C 25,6 C 20,6 C 56 % 1004,1 hPa 0,0 l/m 2 min 0 min 308 W/m 12,9 km/h (3 Bft) 97,83 %
06.10.2018 16:32 24,8 C 26,1 C 20,6 C 56 % 1004,1 hPa 0,0 l/m 2 min 0 min 353 W/m 6,4 km/h (2 Bft) 95,74 %
06.10.2018 16:34 24,8 C 25,6 C 20,0 C 56 % 1004,1 hPa 0,0 l/m 2 min 0 min 356 W/m 9,7 km/h (2 Bft) 97,87 %
06.10.2018 16:36 24,8 C 25,6 C 20,0 C 57 % 1004,2 hPa 0,0 l/m 2 min 0 min 343 W/m 6,4 km/h (2 Bft) 93,62 %
06.10.2018 16:38 24,8 C 26,1 C 20,0 C 56 % 1004,2 hPa 0,0 l/m 2 min 0 min 343 W/m 9,7 km/h (2 Bft) 97,87 %
06.10.2018 16:40 24,9 C 26,1 C 20,0 C 56 % 1004,2 hPa 0,0 l/m 2 min 0 min 345 W/m 12,9 km/h (3 Bft) 97,87 %
06.10.2018 16:42 24,9 C 26,7 C 20,0 C 57 % 1004,1 hPa 0,0 l/m 2 min 0 min 326 W/m 9,7 km/h (2 Bft) 100,00 %
06.10.2018 16:44 24,9 C 26,7 C 20,0 C 57 % 1004,2 hPa 0,0 l/m 2 min 0 min 361 W/m 9,7 km/h (2 Bft) 97,87 %
06.10.2018 16:46 24,9 C 26,1 C 20,0 C 57 % 1004,2 hPa 0,0 l/m 2 min 0 min 231 W/m 6,4 km/h (2 Bft) 95,35 %
06.10.2018 16:48 24,9 C 25,6 C 20,0 C 57 % 1004,2 hPa 0,0 l/m 0 min 0 min 156 W/m 6,4 km/h (2 Bft) 95,74 %
06.10.2018 16:50 24,9 C 25,0 C 20,0 C 58 % 1004,2 hPa 0,0 l/m 0 min 0 min 141 W/m 9,7 km/h (2 Bft) 95,65 %
06.10.2018 16:52 24,9 C 25,0 C 19,4 C 58 % 1004,2 hPa 0,0 l/m 0 min 0 min 133 W/m 6,4 km/h (2 Bft) 95,74 %
06.10.2018 16:54 24,9 C 24,4 C 19,4 C 58 % 1004,2 hPa 0,0 l/m 0 min 0 min 119 W/m 6,4 km/h (2 Bft) 95,74 %
06.10.2018 16:56 24,9 C 24,4 C 19,4 C 57 % 1004,2 hPa 0,0 l/m 0 min 0 min 110 W/m 6,4 km/h (2 Bft) 95,74 %
06.10.2018 16:58 24,9 C 23,9 C 19,4 C 57 % 1004,2 hPa 0,0 l/m 0 min 0 min 111 W/m 6,4 km/h (2 Bft) 95,74 %
06.10.2018 17:00 24,9 C 23,9 C 19,4 C 57 % 1004,2 hPa 0,0 l/m 0 min 0 min 109 W/m 9,7 km/h (2 Bft) 95,65 %
06.10.2018 17:02 24,9 C 23,9 C 19,4 C 57 % 1004,1 hPa 0,0 l/m 0 min 0 min 99 W/m 9,7 km/h (2 Bft) 93,62 %
06.10.2018 17:04 24,9 C 23,9 C 19,4 C 57 % 1004,0 hPa 0,0 l/m 0 min 0 min 95 W/m 6,4 km/h (2 Bft) 95,74 %
06.10.2018 17:06 24,8 C 23,9 C 19,4 C 57 % 1004,0 hPa 0,0 l/m 0 min 0 min 105 W/m 6,4 km/h (2 Bft) 95,74 %
06.10.2018 17:08 24,8 C 24,4 C 19,4 C 57 % 1004,0 hPa 0,0 l/m 2 min 0 min 214 W/m 9,7 km/h (2 Bft) 97,87 %
06.10.2018 17:10 24,8 C 24,4 C 19,4 C 57 % 1004,0 hPa 0,0 l/m 2 min 0 min 320 W/m 6,4 km/h (2 Bft) 97,87 %
06.10.2018 17:12 24,8 C 24,4 C 19,4 C 57 % 1004,0 hPa 0,0 l/m 2 min 0 min 268 W/m 6,4 km/h (2 Bft) 97,83 %
06.10.2018 17:14 24,8 C 24,4 C 19,4 C 57 % 1003,9 hPa 0,0 l/m 2 min 0 min 174 W/m 6,4 km/h (2 Bft) 97,87 %
06.10.2018 17:16 24,7 C 24,4 C 19,4 C 56 % 1003,9 hPa 0,0 l/m 2 min 0 min 225 W/m 9,7 km/h (2 Bft) 97,96 %
06.10.2018 17:18 24,7 C 24,4 C 19,4 C 57 % 1003,8 hPa 0,0 l/m 2 min 0 min 140 W/m 6,4 km/h (2 Bft) 97,87 %
06.10.2018 17:20 24,7 C 23,9 C 19,4 C 57 % 1003,9 hPa 0,0 l/m 0 min 0 min 120 W/m 9,7 km/h (2 Bft) 100,00 %
06.10.2018 17:22 24,7 C 23,9 C 19,4 C 58 % 1003,9 hPa 0,0 l/m 2 min 0 min 121 W/m 6,4 km/h (2 Bft) 97,87 %
06.10.2018 17:24 24,7 C 23,9 C 19,4 C 57 % 1003,8 hPa 0,0 l/m 2 min 0 min 127 W/m 6,4 km/h (2 Bft) 97,83 %
06.10.2018 17:26 24,7 C 23,9 C 19,4 C 58 % 1003,8 hPa 0,0 l/m 2 min 0 min 128 W/m 3,2 km/h (1 Bft) 97,87 %
06.10.2018 17:28 24,7 C 24,4 C 19,4 C 58 % 1003,9 hPa 0,0 l/m 2 min 0 min 132 W/m 6,4 km/h (2 Bft) 97,87 %
06.10.2018 17:30 24,7 C 23,9 C 19,4 C 58 % 1003,9 hPa 0,0 l/m 2 min 0 min 123 W/m 9,7 km/h (2 Bft) 91,49 %
06.10.2018 17:32 24,6 C 23,9 C 19,4 C 58 % 1003,9 hPa 0,0 l/m 2 min 0 min 108 W/m 6,4 km/h (2 Bft) 95,74 %
06.10.2018 17:34 24,6 C 23,9 C 19,4 C 58 % 1003,9 hPa 0,0 l/m 0 min 0 min 101 W/m 6,4 km/h (2 Bft) 95,74 %
06.10.2018 17:36 24,6 C 23,9 C 19,4 C 58 % 1003,8 hPa 0,0 l/m 0 min 0 min 102 W/m 9,7 km/h (2 Bft) 95,65 %
06.10.2018 17:38 24,6 C 23,9 C 19,4 C 59 % 1003,7 hPa 0,0 l/m 0 min 0 min 98 W/m 6,4 km/h (2 Bft) 95,74 %
06.10.2018 17:40 24,5 C 23,9 C 19,4 C 58 % 1003,7 hPa 0,0 l/m 0 min 0 min 85 W/m 6,4 km/h (2 Bft) 97,87 %
06.10.2018 17:42 24,5 C 23,9 C 19,4 C 58 % 1003,7 hPa 0,0 l/m 0 min 0 min 80 W/m 6,4 km/h (2 Bft) 97,87 %
06.10.2018 17:44 24,5 C 23,9 C 19,4 C 58 % 1003,7 hPa 0,0 l/m 0 min 0 min 79 W/m 9,7 km/h (2 Bft) 97,87 %
06.10.2018 17:46 24,5 C 23,9 C 19,4 C 58 % 1003,7 hPa 0,0 l/m 0 min 0 min 78 W/m 6,4 km/h (2 Bft) 95,83 %
06.10.2018 17:48 24,4 C 23,3 C 19,4 C 59 % 1003,7 hPa 0,0 l/m 0 min 0 min 74 W/m 6,4 km/h (2 Bft) 95,74 %
06.10.2018 17:50 24,4 C 23,3 C 19,4 C 59 % 1003,7 hPa 0,0 l/m 0 min 0 min 64 W/m 6,4 km/h (2 Bft) 95,74 %
06.10.2018 17:52 24,4 C 23,3 C 19,4 C 59 % 1003,7 hPa 0,0 l/m 0 min 0 min 57 W/m 9,7 km/h (2 Bft) 97,87 %
06.10.2018 17:54 24,4 C 23,3 C 19,4 C 59 % 1003,7 hPa 0,0 l/m 0 min 0 min 52 W/m 6,4 km/h (2 Bft) 97,87 %
06.10.2018 17:56 24,3 C 23,3 C 18,9 C 59 % 1003,7 hPa 0,0 l/m 0 min 0 min 49 W/m 3,2 km/h (1 Bft) 97,87 %
06.10.2018 17:58 24,3 C 22,8 C 18,9 C 59 % 1003,7 hPa 0,0 l/m 0 min 0 min 46 W/m 6,4 km/h (2 Bft) 97,83 %
06.10.2018 18:00 24,3 C 22,8 C 18,9 C 59 % 1003,8 hPa 0,0 l/m 0 min 0 min 44 W/m 6,4 km/h (2 Bft) 97,87 %
06.10.2018 18:02 24,2 C 22,8 C 18,9 C 60 % 1003,8 hPa 0,0 l/m 0 min 0 min 42 W/m 6,4 km/h (2 Bft) 95,92 %
06.10.2018 18:04 24,2 C 22,8 C 18,9 C 60 % 1003,8 hPa 0,0 l/m 0 min 0 min 40 W/m 3,2 km/h (1 Bft) 95,74 %
06.10.2018 18:06 24,1 C 22,8 C 19,4 C 60 % 1003,8 hPa 0,0 l/m 0 min 0 min 39 W/m 3,2 km/h (1 Bft) 97,87 %
06.10.2018 18:08 24,1 C 22,8 C 18,9 C 59 % 1003,7 hPa 0,0 l/m 0 min 0 min 39 W/m 3,2 km/h (1 Bft) 97,87 %
06.10.2018 18:10 24,0 C 22,2 C 18,9 C 59 % 1003,8 hPa 0,0 l/m 0 min 0 min 37 W/m 9,7 km/h (2 Bft) 97,83 %
06.10.2018 18:12 23,9 C 22,2 C 18,9 C 59 % 1003,8 hPa 0,0 l/m 0 min 0 min 36 W/m 3,2 km/h (1 Bft) 97,87 %
06.10.2018 18:14 23,9 C 22,2 C 18,9 C 58 % 1003,8 hPa 0,0 l/m 0 min 0 min 35 W/m 6,4 km/h (2 Bft) 97,87 %
06.10.2018 18:16 23,8 C 22,2 C 18,9 C 58 % 1003,8 hPa 0,0 l/m 0 min 0 min 34 W/m 3,2 km/h (1 Bft) 100,00 %
06.10.2018 18:18 23,8 C 21,7 C 18,9 C 58 % 1003,8 hPa 0,0 l/m 0 min 0 min 33 W/m 0,0 km/h (0 Bft) 100,00 %
06.10.2018 18:20 23,7 C 21,7 C 18,3 C 58 % 1003,9 hPa 0,0 l/m 0 min 0 min 32 W/m 0,0 km/h (0 Bft) 97,87 %
06.10.2018 18:22 23,7 C 21,7 C 18,3 C 59 % 1004,0 hPa 0,0 l/m 0 min 0 min 30 W/m 3,2 km/h (1 Bft) 100,00 %
06.10.2018 18:24 23,6 C 21,7 C 18,3 C 58 % 1003,9 hPa 0,0 l/m 0 min 0 min 28 W/m 3,2 km/h (1 Bft) 100,00 %
06.10.2018 18:26 23,6 C 21,1 C 18,3 C 58 % 1003,9 hPa 0,0 l/m 0 min 0 min 27 W/m 6,4 km/h (2 Bft) 100,00 %
06.10.2018 18:28 23,4 C 21,1 C 17,8 C 58 % 1003,9 hPa 0,0 l/m 0 min 0 min 26 W/m 3,2 km/h (1 Bft) 95,74 %
06.10.2018 18:30 23,4 C 21,1 C 17,8 C 58 % 1003,9 hPa 0,0 l/m 0 min 0 min 25 W/m 0,0 km/h (0 Bft) 100,00 %
06.10.2018 18:32 23,3 C 20,6 C 17,8 C 59 % 1003,8 hPa 0,0 l/m 0 min 0 min 23 W/m 3,2 km/h (1 Bft) 100,00 %
06.10.2018 18:34 23,2 C 20,6 C 17,8 C 60 % 1003,8 hPa 0,0 l/m 0 min 0 min 21 W/m 3,2 km/h (1 Bft) 97,87 %
06.10.2018 18:36 23,2 C 20,6 C 17,2 C 60 % 1003,9 hPa 0,0 l/m 0 min 0 min 19 W/m 0,0 km/h (0 Bft) 100,00 %
06.10.2018 18:38 23,1 C 20,6 C 17,2 C 60 % 1003,9 hPa 0,0 l/m 0 min 0 min 18 W/m 0,0 km/h (0 Bft) 100,00 %
06.10.2018 18:40 23,0 C 20,0 C 17,2 C 61 % 1004,0 hPa 0,0 l/m 0 min 0 min 17 W/m 3,2 km/h (1 Bft) 100,00 %
06.10.2018 18:42 22,9 C 20,0 C 17,2 C 61 % 1004,0 hPa 0,0 l/m 0 min 0 min 15 W/m 3,2 km/h (1 Bft) 100,00 %
06.10.2018 18:44 22,7 C 20,0 C 17,2 C 61 % 1004,1 hPa 0,0 l/m 0 min 0 min 13 W/m 3,2 km/h (1 Bft) 100,00 %
06.10.2018 18:46 22,6 C 20,0 C 17,2 C 61 % 1004,1 hPa 0,0 l/m 0 min 0 min 12 W/m 3,2 km/h (1 Bft) 97,87 %
06.10.2018 18:48 22,4 C 19,4 C 17,2 C 62 % 1004,1 hPa 0,0 l/m 0 min 0 min 10 W/m 3,2 km/h (1 Bft) 100,00 %
06.10.2018 18:50 22,3 C 19,4 C 17,2 C 62 % 1004,1 hPa 0,0 l/m 0 min 0 min 9 W/m 3,2 km/h (1 Bft) 100,00 %
06.10.2018 18:52 22,2 C 20,0 C 17,2 C 61 % 1004,1 hPa 0,0 l/m 0 min 0 min 7 W/m 6,4 km/h (2 Bft) 100,00 %
06.10.2018 18:54 22,1 C 20,0 C 17,2 C 61 % 1004,1 hPa 0,0 l/m 0 min 0 min 7 W/m 3,2 km/h (1 Bft) 100,00 %
06.10.2018 18:56 22,0 C 20,0 C 16,7 C 62 % 1004,1 hPa 0,0 l/m 0 min 0 min 6 W/m 6,4 km/h (2 Bft) 100,00 %
06.10.2018 18:58 21,9 C 19,4 C 16,7 C 62 % 1004,1 hPa 0,0 l/m 0 min 0 min 5 W/m 6,4 km/h (2 Bft) 97,87 %
06.10.2018 19:00 21,8 C 19,4 C 16,7 C 62 % 1004,1 hPa 0,0 l/m 0 min 0 min 5 W/m 3,2 km/h (1 Bft) 97,87 %
06.10.2018 19:02 21,8 C 19,4 C 16,7 C 62 % 1004,2 hPa 0,0 l/m 0 min 0 min 4 W/m 6,4 km/h (2 Bft) 100,00 %
06.10.2018 19:04 21,7 C 19,4 C 16,7 C 62 % 1004,2 hPa 0,0 l/m 0 min 0 min 0 W/m 3,2 km/h (1 Bft) 97,87 %
06.10.2018 19:06 21,6 C 19,4 C 16,7 C 62 % 1004,2 hPa 0,0 l/m 0 min 0 min 0 W/m 3,2 km/h (1 Bft) 97,92 %
06.10.2018 19:08 21,6 C 19,4 C 16,7 C 63 % 1004,3 hPa 0,0 l/m 0 min 0 min 0 W/m 3,2 km/h (1 Bft) 100,00 %
06.10.2018 19:10 21,4 C 19,4 C 16,7 C 63 % 1004,3 hPa 0,0 l/m 0 min 0 min 0 W/m 3,2 km/h (1 Bft) 100,00 %
06.10.2018 19:12 21,4 C 19,4 C 16,7 C 63 % 1004,3 hPa 0,0 l/m 0 min 0 min 0 W/m 6,4 km/h (2 Bft) 97,87 %
06.10.2018 19:14 21,3 C 18,9 C 16,7 C 63 % 1004,4 hPa 0,0 l/m 0 min 0 min 0 W/m 3,2 km/h (1 Bft) 97,83 %
06.10.2018 19:16 21,2 C 18,9 C 16,7 C 63 % 1004,5 hPa 0,0 l/m 0 min 0 min 0 W/m 3,2 km/h (1 Bft) 97,67 %
06.10.2018 19:18 21,2 C 18,9 C 16,7 C 63 % 1004,5 hPa 0,0 l/m 0 min 0 min 0 W/m 0,0 km/h (0 Bft) 97,87 %
06.10.2018 19:20 21,1 C 18,9 C 16,7 C 64 % 1004,4 hPa 0,0 l/m 0 min 0 min 0 W/m 6,4 km/h (2 Bft) 97,83 %
06.10.2018 19:22 21,0 C 18,9 C 16,1 C 64 % 1004,5 hPa 0,0 l/m 0 min 0 min 0 W/m 3,2 km/h (1 Bft) 95,74 %
06.10.2018 19:24 20,9 C 18,9 C 16,1 C 64 % 1004,5 hPa 0,0 l/m 0 min 0 min 0 W/m 3,2 km/h (1 Bft) 97,87 %
06.10.2018 19:26 20,9 C 18,3 C 16,1 C 64 % 1004,5 hPa 0,0 l/m 0 min 0 min 0 W/m 3,2 km/h (1 Bft) 95,74 %
06.10.2018 19:28 20,8 C 18,9 C 16,1 C 64 % 1004,6 hPa 0,0 l/m 0 min 0 min 0 W/m 3,2 km/h (1 Bft) 97,87 %
06.10.2018 19:30 20,7 C 18,9 C 16,1 C 64 % 1004,6 hPa 0,0 l/m 0 min 0 min 0 W/m 3,2 km/h (1 Bft) 95,74 %
06.10.2018 19:32 20,6 C 18,3 C 16,1 C 65 % 1004,6 hPa 0,0 l/m 0 min 0 min 0 W/m 6,4 km/h (2 Bft) 97,87 %
06.10.2018 19:34 20,6 C 18,3 C 16,1 C 65 % 1004,6 hPa 0,0 l/m 0 min 0 min 0 W/m 6,4 km/h (2 Bft) 97,87 %
06.10.2018 19:36 20,4 C 18,3 C 16,1 C 65 % 1004,6 hPa 0,0 l/m 0 min 0 min 0 W/m 6,4 km/h (2 Bft) 95,74 %
06.10.2018 19:38 20,4 C 18,3 C 16,1 C 65 % 1004,6 hPa 0,0 l/m 0 min 0 min 0 W/m 3,2 km/h (1 Bft) 97,87 %
06.10.2018 19:40 20,3 C 18,3 C 16,1 C 66 % 1004,7 hPa 0,0 l/m 0 min 0 min 0 W/m 3,2 km/h (1 Bft) 95,74 %
06.10.2018 19:42 20,2 C 17,8 C 15,6 C 66 % 1004,7 hPa 0,0 l/m 0 min 0 min 0 W/m 3,2 km/h (1 Bft) 97,87 %
06.10.2018 19:44 20,2 C 17,8 C 15,6 C 66 % 1004,7 hPa 0,0 l/m 0 min 0 min 0 W/m 3,2 km/h (1 Bft) 95,65 %
06.10.2018 19:46 20,1 C 17,8 C 15,6 C 66 % 1004,7 hPa 0,0 l/m 0 min 0 min 0 W/m 3,2 km/h (1 Bft) 98,00 %
06.10.2018 19:48 20,0 C 17,8 C 15,6 C 66 % 1004,7 hPa 0,0 l/m 0 min 0 min 0 W/m 3,2 km/h (1 Bft) 97,87 %
06.10.2018 19:50 19,9 C 17,8 C 15,6 C 66 % 1004,6 hPa 0,0 l/m 0 min 0 min 0 W/m 3,2 km/h (1 Bft) 95,74 %
06.10.2018 19:52 19,9 C 17,2 C 15,6 C 67 % 1004,7 hPa 0,0 l/m 0 min 0 min 0 W/m 3,2 km/h (1 Bft) 97,87 %
06.10.2018 19:54 19,8 C 17,2 C 15,6 C 67 % 1004,7 hPa 0,0 l/m 0 min 0 min 0 W/m 3,2 km/h (1 Bft) 97,83 %
06.10.2018 19:56 19,7 C 17,2 C 15,0 C 67 % 1004,7 hPa 0,0 l/m 0 min 0 min 0 W/m 3,2 km/h (1 Bft) 100,00 %
06.10.2018 19:58 19,7 C 17,2 C 15,0 C 67 % 1004,7 hPa 0,0 l/m 0 min 0 min 0 W/m 3,2 km/h (1 Bft) 100,00 %
06.10.2018 20:00 19,6 C 17,2 C 15,0 C 68 % 1004,7 hPa 0,0 l/m 0 min 0 min 0 W/m 3,2 km/h (1 Bft) 100,00 %
06.10.2018 20:02 19,5 C 17,2 C 15,0 C 68 % 1004,8 hPa 0,0 l/m 0 min 0 min 0 W/m 3,2 km/h (1 Bft) 100,00 %
06.10.2018 20:04 19,4 C 17,2 C 15,0 C 68 % 1004,8 hPa 0,0 l/m 0 min 0 min 0 W/m 3,2 km/h (1 Bft) 100,00 %
06.10.2018 20:06 19,3 C 17,2 C 15,0 C 68 % 1004,8 hPa 0,0 l/m 0 min 0 min 0 W/m 3,2 km/h (1 Bft) 97,83 %
06.10.2018 20:08 19,3 C 17,2 C 15,0 C 68 % 1004,8 hPa 0,0 l/m 0 min 0 min 0 W/m 3,2 km/h (1 Bft) 97,87 %
06.10.2018 20:10 19,2 C 17,2 C 15,0 C 68 % 1004,9 hPa 0,0 l/m 0 min 0 min 0 W/m 3,2 km/h (1 Bft) 97,87 %
06.10.2018 20:12 19,2 C 16,7 C 15,0 C 69 % 1004,8 hPa 0,0 l/m 0 min 0 min 0 W/m 3,2 km/h (1 Bft) 95,74 %
06.10.2018 20:14 19,1 C 16,7 C 15,0 C 69 % 1004,8 hPa 0,0 l/m 0 min 0 min 0 W/m 0,0 km/h (0 Bft) 95,74 %
06.10.2018 20:16 19,0 C 16,7 C 15,0 C 69 % 1004,8 hPa 0,0 l/m 0 min 0 min 0 W/m 0,0 km/h (0 Bft) 95,83 %
06.10.2018 20:18 18,9 C 16,7 C 15,0 C 69 % 1004,8 hPa 0,0 l/m 0 min 0 min 0 W/m 0,0 km/h (0 Bft) 95,65 %
06.10.2018 20:20 18,9 C 16,7 C 15,0 C 69 % 1004,8 hPa 0,0 l/m 0 min 0 min 0 W/m 0,0 km/h (0 Bft) 93,62 %
06.10.2018 20:22 18,8 C 16,7 C 14,4 C 70 % 1004,8 hPa 0,0 l/m 0 min 0 min 0 W/m 0,0 km/h (0 Bft) 95,74 %
06.10.2018 20:24 18,8 C 16,7 C 14,4 C 70 % 1004,8 hPa 0,0 l/m 0 min 0 min 0 W/m 0,0 km/h (0 Bft) 95,74 %
06.10.2018 20:26 18,7 C 16,7 C 14,4 C 70 % 1004,8 hPa 0,0 l/m 0 min 0 min 0 W/m 0,0 km/h (0 Bft) 97,14 %
06.10.2018 20:28 18,6 C 16,7 C 14,4 C 70 % 1004,9 hPa 0,0 l/m 0 min 0 min 0 W/m 0,0 km/h (0 Bft) 95,74 %
06.10.2018 20:30 18,6 C 16,1 C 14,4 C 71 % 1004,9 hPa 0,0 l/m 0 min 0 min 0 W/m 0,0 km/h (0 Bft) 94,83 %
06.10.2018 20:32 18,5 C 16,1 C 14,4 C 71 % 1004,9 hPa 0,0 l/m 0 min 0 min 0 W/m 0,0 km/h (0 Bft) 93,62 %
06.10.2018 20:34 18,4 C 16,1 C 14,4 C 71 % 1004,9 hPa 0,0 l/m 0 min 0 min 0 W/m 0,0 km/h (0 Bft) 95,74 %
06.10.2018 20:36 18,3 C 16,1 C 14,4 C 71 % 1004,9 hPa 0,0 l/m 0 min 0 min 0 W/m 0,0 km/h (0 Bft) 95,74 %
06.10.2018 20:38 18,3 C 16,1 C 14,4 C 72 % 1004,9 hPa 0,0 l/m 0 min 0 min 0 W/m 0,0 km/h (0 Bft) 94,29 %
06.10.2018 20:40 18,2 C 15,6 C 14,4 C 72 % 1004,9 hPa 0,0 l/m 0 min 0 min 0 W/m 0,0 km/h (0 Bft) 95,74 %
06.10.2018 20:42 18,1 C 15,6 C 13,9 C 72 % 1004,9 hPa 0,0 l/m 0 min 0 min 0 W/m 0,0 km/h (0 Bft) 94,83 %
06.10.2018 20:44 18,0 C 15,6 C 13,9 C 73 % 1005,0 hPa 0,0 l/m 0 min 0 min 0 W/m 0,0 km/h (0 Bft) 94,29 %
06.10.2018 20:46 17,9 C 15,6 C 13,9 C 73 % 1005,0 hPa 0,0 l/m 0 min 0 min 0 W/m 0,0 km/h (0 Bft) 96,72 %
06.10.2018 20:48 17,9 C 15,6 C 13,9 C 73 % 1005,0 hPa 0,0 l/m 0 min 0 min 0 W/m 0,0 km/h (0 Bft) 94,44 %
06.10.2018 20:50 17,8 C 15,6 C 13,9 C 73 % 1005,0 hPa 0,0 l/m 0 min 0 min 0 W/m 0,0 km/h (0 Bft) 95,74 %
06.10.2018 20:52 17,7 C 15,6 C 13,9 C 74 % 1005,0 hPa 0,0 l/m 0 min 0 min 0 W/m 0,0 km/h (0 Bft) 93,62 %
06.10.2018 20:54 17,7 C 15,6 C 13,9 C 74 % 1005,1 hPa 0,0 l/m 0 min 0 min 0 W/m 0,0 km/h (0 Bft) 95,74 %
06.10.2018 20:56 17,6 C 15,6 C 13,9 C 74 % 1005,1 hPa 0,0 l/m 0 min 0 min 0 W/m 0,0 km/h (0 Bft) 95,65 %
06.10.2018 20:58 17,6 C 15,6 C 13,9 C 74 % 1005,2 hPa 0,0 l/m 0 min 0 min 0 W/m 0,0 km/h (0 Bft) 95,74 %
06.10.2018 21:00 17,5 C 15,6 C 13,9 C 75 % 1005,2 hPa 0,0 l/m 0 min 0 min 0 W/m 0,0 km/h (0 Bft) 93,62 %
06.10.2018 21:02 17,4 C 15,6 C 13,9 C 75 % 1005,2 hPa 0,0 l/m 0 min 0 min 0 W/m 0,0 km/h (0 Bft) 98,00 %
06.10.2018 21:04 17,3 C 15,6 C 13,9 C 75 % 1005,2 hPa 0,0 l/m 0 min 0 min 0 W/m 0,0 km/h (0 Bft) 97,87 %
06.10.2018 21:06 17,3 C 15,6 C 13,9 C 75 % 1005,3 hPa 0,0 l/m 0 min 0 min 0 W/m 0,0 km/h (0 Bft) 97,87 %
06.10.2018 21:08 17,2 C 15,0 C 13,9 C 75 % 1005,3 hPa 0,0 l/m 0 min 0 min 0 W/m 0,0 km/h (0 Bft) 97,87 %
06.10.2018 21:10 17,2 C 15,0 C 13,9 C 76 % 1005,4 hPa 0,0 l/m 0 min 0 min 0 W/m 0,0 km/h (0 Bft) 95,74 %
06.10.2018 21:12 17,1 C 15,0 C 13,9 C 76 % 1005,4 hPa 0,0 l/m 0 min 0 min 0 W/m 0,0 km/h (0 Bft) 97,83 %
06.10.2018 21:14 17,1 C 15,0 C 13,9 C 76 % 1005,4 hPa 0,0 l/m 0 min 0 min 0 W/m 0,0 km/h (0 Bft) 100,00 %
06.10.2018 21:16 17,0 C 14,4 C 13,9 C 76 % 1005,4 hPa 0,0 l/m 0 min 0 min 0 W/m 0,0 km/h (0 Bft) 100,00 %
06.10.2018 21:18 16,9 C 14,4 C 13,9 C 76 % 1005,4 hPa 0,0 l/m 0 min 0 min 0 W/m 0,0 km/h (0 Bft) 97,87 %
06.10.2018 21:20 16,8 C 14,4 C 13,9 C 77 % 1005,5 hPa 0,0 l/m 0 min 0 min 0 W/m 0,0 km/h (0 Bft) 97,87 %
06.10.2018 21:22 16,8 C 14,4 C 13,9 C 77 % 1005,4 hPa 0,0 l/m 0 min 0 min 0 W/m 0,0 km/h (0 Bft) 100,00 %
06.10.2018 21:24 16,7 C 14,4 C 13,9 C 77 % 1005,5 hPa 0,0 l/m 0 min 0 min 0 W/m 0,0 km/h (0 Bft) 97,83 %
06.10.2018 21:26 16,7 C 14,4 C 13,9 C 77 % 1005,5 hPa 0,0 l/m 0 min 0 min 0 W/m 0,0 km/h (0 Bft) 100,00 %
06.10.2018 21:28 16,6 C 14,4 C 13,9 C 78 % 1005,5 hPa 0,0 l/m 0 min 0 min 0 W/m 0,0 km/h (0 Bft) 100,00 %
06.10.2018 21:30 16,6 C 14,4 C 13,9 C 77 % 1005,5 hPa 0,0 l/m 0 min 0 min 0 W/m 0,0 km/h (0 Bft) 97,87 %
06.10.2018 21:32 16,6 C 14,4 C 13,9 C 78 % 1005,5 hPa 0,0 l/m 0 min 0 min 0 W/m 0,0 km/h (0 Bft) 95,74 %
06.10.2018 21:34 16,5 C 14,4 C 13,3 C 78 % 1005,5 hPa 0,0 l/m 0 min 0 min 0 W/m 0,0 km/h (0 Bft) 97,83 %
06.10.2018 21:36 16,4 C 15,0 C 13,3 C 78 % 1005,5 hPa 0,0 l/m 0 min 0 min 0 W/m 0,0 km/h (0 Bft) 97,87 %
06.10.2018 21:38 16,4 C 15,0 C 13,3 C 78 % 1005,6 hPa 0,0 l/m 0 min 0 min 0 W/m 0,0 km/h (0 Bft) 95,74 %
06.10.2018 21:40 16,4 C 14,4 C 13,3 C 78 % 1005,6 hPa 0,0 l/m 0 min 0 min 0 W/m 0,0 km/h (0 Bft) 97,87 %
06.10.2018 21:42 16,3 C 14,4 C 13,3 C 78 % 1005,6 hPa 0,0 l/m 0 min 0 min 0 W/m 0,0 km/h (0 Bft) 97,87 %
06.10.2018 21:44 16,2 C 14,4 C 13,3 C 78 % 1005,7 hPa 0,0 l/m 0 min 0 min 0 W/m 0,0 km/h (0 Bft) 97,87 %
06.10.2018 21:46 16,2 C 14,4 C 13,3 C 78 % 1005,7 hPa 0,0 l/m 0 min 0 min 0 W/m 0,0 km/h (0 Bft) 97,83 %
06.10.2018 21:48 16,2 C 14,4 C 13,3 C 79 % 1005,7 hPa 0,0 l/m 0 min 0 min 0 W/m 0,0 km/h (0 Bft) 97,87 %
06.10.2018 21:50 16,1 C 14,4 C 13,3 C 79 % 1005,7 hPa 0,0 l/m 0 min 0 min 0 W/m 0,0 km/h (0 Bft) 97,87 %
06.10.2018 21:52 16,1 C 14,4 C 13,3 C 79 % 1005,6 hPa 0,0 l/m 0 min 0 min 0 W/m 0,0 km/h (0 Bft) 95,74 %
06.10.2018 21:54 16,0 C 14,4 C 13,3 C 79 % 1005,7 hPa 0,0 l/m 0 min 0 min 0 W/m 0,0 km/h (0 Bft) 97,87 %
06.10.2018 21:56 16,0 C 14,4 C 13,3 C 79 % 1005,7 hPa 0,0 l/m 0 min 0 min 0 W/m 0,0 km/h (0 Bft) 97,87 %
06.10.2018 21:58 15,9 C 14,4 C 13,3 C 79 % 1005,8 hPa 0,0 l/m 0 min 0 min 0 W/m 0,0 km/h (0 Bft) 95,65 %
06.10.2018 22:00 15,9 C 14,4 C 13,3 C 79 % 1005,8 hPa 0,0 l/m 0 min 0 min 0 W/m 0,0 km/h (0 Bft) 97,87 %
06.10.2018 22:02 15,9 C 14,4 C 13,3 C 80 % 1005,8 hPa 0,0 l/m 0 min 0 min 0 W/m 0,0 km/h (0 Bft) 97,87 %
06.10.2018 22:04 15,8 C 14,4 C 13,3 C 80 % 1005,8 hPa 0,0 l/m 0 min 0 min 0 W/m 3,2 km/h (1 Bft) 97,87 %
06.10.2018 22:06 15,8 C 14,4 C 13,3 C 80 % 1005,9 hPa 0,0 l/m 0 min 0 min 0 W/m 3,2 km/h (1 Bft) 97,87 %
06.10.2018 22:08 15,8 C 14,4 C 13,3 C 80 % 1005,9 hPa 0,0 l/m 0 min 0 min 0 W/m 3,2 km/h (1 Bft) 97,87 %
06.10.2018 22:10 15,7 C 14,4 C 13,3 C 80 % 1005,9 hPa 0,0 l/m 0 min 0 min 0 W/m 0,0 km/h (0 Bft) 97,83 %
06.10.2018 22:12 15,7 C 14,4 C 13,3 C 81 % 1006,0 hPa 0,0 l/m 0 min 0 min 0 W/m 0,0 km/h (0 Bft) 97,87 %
06.10.2018 22:14 15,7 C 14,4 C 13,3 C 81 % 1006,0 hPa 0,0 l/m 0 min 0 min 0 W/m 0,0 km/h (0 Bft) 100,00 %
06.10.2018 22:16 15,6 C 14,4 C 13,9 C 81 % 1006,0 hPa 0,0 l/m 0 min 0 min 0 W/m 0,0 km/h (0 Bft) 100,00 %
06.10.2018 22:18 15,6 C 14,4 C 13,9 C 81 % 1006,0 hPa 0,0 l/m 0 min 0 min 0 W/m 3,2 km/h (1 Bft) 97,83 %
06.10.2018 22:20 15,6 C 14,4 C 13,9 C 81 % 1006,1 hPa 0,0 l/m 0 min 0 min 0 W/m 6,4 km/h (2 Bft) 100,00 %
06.10.2018 22:22 15,6 C 15,0 C 13,9 C 81 % 1006,1 hPa 0,0 l/m 0 min 0 min 0 W/m 0,0 km/h (0 Bft) 100,00 %
06.10.2018 22:24 15,6 C 15,0 C 13,9 C 81 % 1006,1 hPa 0,0 l/m 0 min 0 min 0 W/m 0,0 km/h (0 Bft) 97,87 %
06.10.2018 22:26 15,6 C 15,0 C 13,9 C 81 % 1006,2 hPa 0,0 l/m 0 min 0 min 0 W/m 6,4 km/h (2 Bft) 100,00 %
06.10.2018 22:28 15,6 C 15,0 C 13,9 C 82 % 1006,3 hPa 0,0 l/m 0 min 0 min 0 W/m 6,4 km/h (2 Bft) 100,00 %
06.10.2018 22:30 15,5 C 15,0 C 13,9 C 82 % 1006,4 hPa 0,0 l/m 0 min 0 min 0 W/m 3,2 km/h (1 Bft) 100,00 %
06.10.2018 22:32 15,5 C 15,0 C 13,9 C 82 % 1006,4 hPa 0,0 l/m 0 min 0 min 0 W/m 0,0 km/h (0 Bft) 97,87 %
06.10.2018 22:34 15,5 C 15,0 C 13,9 C 83 % 1006,4 hPa 0,0 l/m 0 min 0 min 0 W/m 0,0 km/h (0 Bft) 100,00 %
06.10.2018 22:36 15,5 C 15,0 C 13,9 C 83 % 1006,4 hPa 0,0 l/m 0 min 0 min 0 W/m 0,0 km/h (0 Bft) 100,00 %
06.10.2018 22:38 15,5 C 15,0 C 13,9 C 83 % 1006,4 hPa 0,0 l/m 0 min 0 min 0 W/m 0,0 km/h (0 Bft) 97,87 %
06.10.2018 22:40 15,5 C 15,0 C 13,9 C 83 % 1006,4 hPa 0,0 l/m 0 min 0 min 0 W/m 0,0 km/h (0 Bft) 100,00 %
06.10.2018 22:42 15,5 C 15,0 C 13,9 C 83 % 1006,5 hPa 0,0 l/m 0 min 0 min 0 W/m 0,0 km/h (0 Bft) 100,00 %
06.10.2018 22:44 15,5 C 15,0 C 13,9 C 83 % 1006,4 hPa 0,0 l/m 0 min 0 min 0 W/m 0,0 km/h (0 Bft) 100,00 %
06.10.2018 22:46 15,5 C 15,0 C 13,9 C 83 % 1006,5 hPa 0,0 l/m 0 min 0 min 0 W/m 0,0 km/h (0 Bft) 100,00 %
06.10.2018 22:48 15,5 C 15,0 C 13,9 C 83 % 1006,6 hPa 0,0 l/m 0 min 0 min 0 W/m 0,0 km/h (0 Bft) 100,00 %
06.10.2018 22:50 15,5 C 15,0 C 13,9 C 84 % 1006,7 hPa 0,0 l/m 0 min 0 min 0 W/m 3,2 km/h (1 Bft) 100,00 %
06.10.2018 22:52 15,5 C 15,0 C 13,9 C 84 % 1006,7 hPa 0,0 l/m 0 min 0 min 0 W/m 6,4 km/h (2 Bft) 100,00 %
06.10.2018 22:54 15,5 C 15,0 C 13,9 C 84 % 1006,8 hPa 0,0 l/m 0 min 0 min 0 W/m 6,4 km/h (2 Bft) 100,00 %
06.10.2018 22:56 15,5 C 15,0 C 13,9 C 84 % 1006,7 hPa 0,0 l/m 0 min 0 min 0 W/m 6,4 km/h (2 Bft) 100,00 %
06.10.2018 22:58 15,5 C 14,4 C 13,9 C 84 % 1006,8 hPa 0,0 l/m 0 min 0 min 0 W/m 3,2 km/h (1 Bft) 100,00 %
06.10.2018 23:00 15,5 C 14,4 C 13,9 C 84 % 1006,8 hPa 0,0 l/m 0 min 0 min 0 W/m 0,0 km/h (0 Bft) 100,00 %
06.10.2018 23:02 15,5 C 14,4 C 13,9 C 84 % 1006,9 hPa 0,0 l/m 0 min 0 min 0 W/m 3,2 km/h (1 Bft) 100,00 %
06.10.2018 23:04 15,5 C 14,4 C 13,9 C 84 % 1006,9 hPa 0,0 l/m 0 min 0 min 0 W/m 6,4 km/h (2 Bft) 100,00 %
06.10.2018 23:06 15,5 C 14,4 C 13,9 C 84 % 1006,9 hPa 0,0 l/m 0 min 0 min 0 W/m 6,4 km/h (2 Bft) 96,30 %
06.10.2018 23:08 15,5 C 14,4 C 13,9 C 84 % 1006,9 hPa 0,0 l/m 0 min 0 min 0 W/m 3,2 km/h (1 Bft) 97,83 %
06.10.2018 23:10 15,5 C 14,4 C 13,9 C 84 % 1006,9 hPa 0,0 l/m 0 min 0 min 0 W/m 3,2 km/h (1 Bft) 97,87 %
06.10.2018 23:12 15,5 C 14,4 C 13,9 C 84 % 1006,9 hPa 0,0 l/m 0 min 0 min 0 W/m 6,4 km/h (2 Bft) 97,87 %
06.10.2018 23:14 15,5 C 14,4 C 13,9 C 84 % 1007,0 hPa 0,0 l/m 0 min 0 min 0 W/m 6,4 km/h (2 Bft) 97,87 %
06.10.2018 23:16 15,5 C 14,4 C 13,9 C 84 % 1007,0 hPa 0,0 l/m 0 min 0 min 0 W/m 6,4 km/h (2 Bft) 97,62 %
06.10.2018 23:18 15,5 C 14,4 C 13,9 C 85 % 1007,0 hPa 0,0 l/m 0 min 0 min 0 W/m 6,4 km/h (2 Bft) 95,74 %
06.10.2018 23:20 15,5 C 14,4 C 13,9 C 85 % 1007,1 hPa 0,0 l/m 0 min 0 min 0 W/m 6,4 km/h (2 Bft) 97,87 %
06.10.2018 23:22 15,5 C 14,4 C 13,9 C 85 % 1007,2 hPa 0,0 l/m 0 min 0 min 0 W/m 9,7 km/h (2 Bft) 100,00 %
06.10.2018 23:24 15,5 C 14,4 C 13,9 C 85 % 1007,2 hPa 0,0 l/m 0 min 0 min 0 W/m 6,4 km/h (2 Bft) 97,87 %
06.10.2018 23:26 15,5 C 14,4 C 13,9 C 85 % 1007,2 hPa 0,0 l/m 0 min 0 min 0 W/m 9,7 km/h (2 Bft) 97,87 %
06.10.2018 23:28 15,4 C 14,4 C 13,9 C 85 % 1007,2 hPa 0,0 l/m 0 min 0 min 0 W/m 9,7 km/h (2 Bft) 97,83 %
06.10.2018 23:30 15,4 C 14,4 C 13,9 C 85 % 1007,2 hPa 0,0 l/m 0 min 0 min 0 W/m 9,7 km/h (2 Bft) 97,87 %
06.10.2018 23:32 15,4 C 14,4 C 14,4 C 85 % 1007,2 hPa 0,0 l/m 0 min 0 min 0 W/m 9,7 km/h (2 Bft) 97,96 %
06.10.2018 23:34 15,4 C 14,4 C 14,4 C 86 % 1007,1 hPa 0,0 l/m 0 min 0 min 0 W/m 9,7 km/h (2 Bft) 93,62 %
06.10.2018 23:36 15,4 C 14,4 C 14,4 C 86 % 1007,2 hPa 0,0 l/m 0 min 0 min 0 W/m 9,7 km/h (2 Bft) 97,87 %
06.10.2018 23:38 15,4 C 14,4 C 14,4 C 86 % 1007,1 hPa 0,0 l/m 0 min 0 min 0 W/m 6,4 km/h (2 Bft) 97,83 %
06.10.2018 23:40 15,4 C 14,4 C 14,4 C 86 % 1007,2 hPa 0,0 l/m 0 min 0 min 0 W/m 9,7 km/h (2 Bft) 97,87 %
06.10.2018 23:42 15,4 C 14,4 C 14,4 C 86 % 1007,2 hPa 0,0 l/m 0 min 0 min 0 W/m 6,4 km/h (2 Bft) 95,74 %
06.10.2018 23:44 15,4 C 14,4 C 14,4 C 86 % 1007,1 hPa 0,0 l/m 0 min 0 min 0 W/m 12,9 km/h (3 Bft) 97,87 %
06.10.2018 23:46 15,4 C 14,4 C 14,4 C 86 % 1007,2 hPa 0,0 l/m 0 min 0 min 0 W/m 12,9 km/h (3 Bft) 97,87 %
06.10.2018 23:48 15,4 C 14,4 C 14,4 C 86 % 1007,2 hPa 0,0 l/m 0 min 0 min 0 W/m 9,7 km/h (2 Bft) 97,87 %
06.10.2018 23:50 15,4 C 14,4 C 14,4 C 86 % 1007,3 hPa 0,0 l/m 0 min 0 min 0 W/m 9,7 km/h (2 Bft) 97,83 %
06.10.2018 23:52 15,4 C 14,4 C 14,4 C 86 % 1007,3 hPa 0,0 l/m 0 min 0 min 0 W/m 12,9 km/h (3 Bft) 95,74 %
06.10.2018 23:54 15,4 C 15,0 C 14,4 C 86 % 1007,3 hPa 0,0 l/m 0 min 0 min 0 W/m 9,7 km/h (2 Bft) 100,00 %
06.10.2018 23:56 15,4 C 14,4 C 14,4 C 86 % 1007,4 hPa 0,0 l/m 0 min 0 min 0 W/m 9,7 km/h (2 Bft) 97,87 %
06.10.2018 23:58 15,4 C 14,4 C 14,4 C 86 % 1007,5 hPa 0,0 l/m 0 min 0 min 0 W/m 6,4 km/h (2 Bft) 97,87 %
_ Min-Zeit 06:22 03:14 03:48 16:24 17:38 - - - - 02:16 00:02
Minimum _ 10,0 C 9,4 C 9,4 C 56 % 1003,7 hPa - - - - 0,0 km/h (0 Bft) 14,29 %
_ Max-Zeit 16:40 12:16 14:36 08:18 00:00 00:00 09:46 00:00 13:08 09:24 00:42
Maximum _ 24,9 C 28,9 C 20,6 C 96 % 1011,5 hPa 0,0 l/m 2 min 0 min 500 W/m 22,5 km/h
O-SO (4 Bft)
100,00 %
Durchschnitt _ 16,4 C 16,5 C 13,9 C 79 % 1007,2 hPa #0,0 l/m #4:16 h #0 min. 178 W/m 7,2 km/h (2 Bft) 97,50 %
© 2018 W. Hausmann